GFSGL_925_thetae_000.txt.gz
Theta_e
342 344 343 336 341 339 340 339 340 340 341 340 341 343 343 341 341 342 343 340 337 334 334 337 336 331 340 341 338 340 338 337 340 339 340 337 340 341 341 340 341 340 339
346 345 342 340 339 343 339 340 341 341 340 339 340 341 340 341 341 341 340 337 336 337 337 338 338 339 340 340 334 335 338 339 338 340 339 337 337 340 337 337 331 334 336
347 343 343 342 342 342 341 338 339 340 339 339 340 340 340 337 337 338 337 335 334 334 333 334 334 334 335 335 337 337 339 339 339 337 337 339 337 338 337 332 328 324 324
345 345 343 343 342 342 342 342 340 339 339 337 337 339 339 338 336 336 337 335 333 332 332 331 330 334 333 331 331 332 333 333 335 336 336 334 334 333 335 333 328 323 322
343 345 342 341 342 340 343 342 341 340 338 334 334 335 335 334 334 334 334 333 332 331 330 330 330 333 333 333 332 332 332 333 333 334 334 334 334 335 335 332 332 330 327
342 345 341 340 340 339 341 339 339 339 337 337 336 335 335 334 334 332 332 331 329 329 329 329 328 329 327 325 326 327 328 332 334 333 334 334 330 326 324 323 324 321 323
343 342 340 339 340 338 338 338 339 338 337 336 333 332 331 331 331 331 330 330 329 328 327 326 324 320 316 319 320 318 320 324 329 331 328 324 321 321 321 321 319 319 319
345 342 339 337 337 340 337 338 337 334 332 329 326 323 324 328 331 332 332 328 324 322 323 320 321 318 321 321 318 313 314 315 318 321 320 317 316 316 315 314 313 315 315
346 343 340 339 339 338 337 336 332 329 324 322 320 318 317 319 326 327 325 322 319 315 314 312 314 315 317 317 315 311 309 309 310 309 308 308 307 307 307 313 311 311 312
339 340 338 336 331 328 330 326 324 322 320 317 314 313 314 315 319 322 320 315 311 307 306 307 310 313 316 317 317 316 314 314 313 312 311 310 310 309 309 307 308 309 308
323 325 328 327 324 322 322 321 319 316 313 310 309 308 309 310 313 316 318 316 312 308 307 307 307 308 309 310 314 312 310 309 310 310 310 309 308 308 307 305 306 306 307
316 317 316 319 318 318 319 315 313 311 309 307 308 307 308 311 311 310 310 309 309 308 307 308 309 310 309 308 308 308 308 309 310 310 310 311 306 304 302 302 303 302 302
311 311 310 310 310 311 310 309 309 308 307 306 305 305 305 306 306 308 309 310 310 308 307 307 307 306 306 307 308 307 307 307 307 305 305 304 302 301 300 302 302 302 303
311 311 311 311 311 311 310 309 308 307 306 305 304 304 303 304 304 305 305 304 304 304 304 304 304 304 304 303 304 303 303 302 302 302 302 301 300 299 298 297 297 298 298
311 308 307 306 304 304 303 304 303 303 302 302 302 301 300 300 301 304 306 306 306 305 305 304 305 304 304 304 303 303 301 301 301 301 300 299 299 298 297 296 297 298 299
309 306 303 302 302 301 299 299 300 299 298 298 298 297 296 296 297 298 300 302 303 303 304 304 304 303 302 302 302 302 301 301 300 300 299 299 298 297 296 296 297 297 298
311 310 308 307 305 303 301 299 297 296 295 295 296 296 295 295 298 300 300 300 301 303 303 303 302 302 301 301 301 301 300 300 301 301 299 298 297 297 296 296 297 297 298
309 307 307 307 307 307 305 303 302 303 301 299 296 295 295 298 299 299 299 301 302 301 301 301 301 301 302 301 301 300 299 299 298 298 298 297 296 296 296 296 297 297 297
310 310 311 311 311 310 309 309 308 307 305 302 299 298 298 298 299 299 300 300 300 300 300 300 300 299 299 299 299 298 298 298 297 298 297 296 295 295 295 296 296 296 297
312 312 311 310 310 310 310 309 309 308 308 305 304 303 300 299 300 301 301 299 299 299 299 299 298 298 298 297 297 297 297 297 297 296 295 295 294 294 295 295 295 297 297
312 312 312 312 311 310 310 309 309 308 308 305 302 299 300 300 301 300 299 299 299 299 298 298 298 298 297 297 297 297 297 297 296 295 295 294 294 294 294 294 294 295 296
314 313 312 312 312 311 310 310 309 308 308 305 301 297 299 300 299 299 299 299 299 298 298 298 297 297 297 297 297 297 297 297 296 295 294 294 293 294 294 293 294 295 295
314 313 312 312 312 310 309 310 309 308 306 304 303 300 299 300 299 300 300 300 299 299 298 298 298 298 298 297 297 297 298 297 295 294 293 292 292 294 293 294 294 294 294
313 311 310 312 311 310 310 309 308 306 304 304 303 301 300 300 300 300 299 299 299 299 299 298 297 296 296 296 296 297 296 295 295 293 291 290 292 293 293 294 293 293 293
310 311 310 311 310 309 309 308 308 305 304 303 302 301 300 300 300 300 300 299 299 299 298 297 297 296 295 295 296 295 294 294 293 289 287 288 291 293 293 293 292 293 293
309 310 309 309 310 308 308 308 307 306 305 303 302 301 300 300 300 300 299 299 299 299 299 298 298 296 295 296 292 290 291 290 289 287 287 289 292 293 293 293 292 293 293

GFSGL_925_thetae_003.txt.gz
Theta_e
343 345 340 340 341 338 340 338 339 338 338 340 341 341 340 340 340 340 340 340 340 339 338 335 334 331 335 339 338 338 338 338 337 339 340 340 339 338 338 338 338 338 339
345 345 342 336 340 339 339 340 340 340 339 338 340 341 340 340 340 341 340 339 337 336 339 339 338 335 338 337 338 338 338 338 338 339 339 338 335 339 336 333 339 338 338
347 343 343 342 341 341 339 338 338 338 339 339 339 339 338 338 339 338 337 336 336 335 335 335 334 336 335 334 332 334 334 336 337 338 338 337 335 336 333 331 330 330 329
346 343 343 341 341 342 341 340 338 339 337 340 339 336 335 336 335 334 333 333 332 331 331 331 333 333 331 331 329 328 330 330 334 335 335 334 333 333 329 327 322 320 320
345 345 342 340 341 342 341 340 337 336 334 335 336 335 334 334 334 334 334 333 333 332 331 330 330 333 332 331 330 329 327 331 332 334 334 333 332 333 333 331 324 323 320
342 345 341 341 339 341 339 339 339 338 335 335 334 334 333 333 333 332 331 330 329 330 329 329 329 328 327 328 326 327 327 328 332 331 333 329 325 325 324 325 329 325 321
342 344 341 339 339 339 339 338 337 335 335 332 330 330 330 332 331 330 330 328 327 326 325 323 322 320 320 320 321 323 325 328 330 331 325 320 317 318 320 319 319 319 318
345 342 340 340 338 338 337 334 331 330 328 326 323 324 327 330 332 331 325 323 323 322 322 318 317 318 319 314 314 312 311 313 317 321 318 313 313 312 314 313 315 315 315
343 343 340 340 337 336 333 329 326 324 322 320 318 319 324 326 328 329 324 319 317 314 313 315 317 317 315 312 310 312 311 311 311 310 310 310 309 309 309 313 310 311 311
332 336 336 336 335 332 327 324 321 320 317 316 314 313 316 320 320 321 321 315 310 310 312 313 315 317 315 315 314 313 313 312 311 311 310 309 309 308 308 308 307 308 307
321 325 326 327 326 324 321 319 319 317 315 312 311 310 311 313 316 315 312 309 307 307 307 307 309 311 313 312 310 310 309 309 309 310 309 308 308 305 305 305 303 303 307
316 315 317 319 319 318 319 315 315 314 310 309 309 309 310 311 311 311 310 309 308 309 309 309 310 311 310 309 309 309 310 311 311 310 308 305 303 304 303 302 302 301 301
312 311 311 312 312 311 311 311 310 309 309 307 307 307 307 308 310 311 310 311 311 310 308 306 305 306 306 306 306 305 304 305 303 303 303 303 302 300 300 300 299 299 301
311 311 311 310 309 309 308 308 307 307 306 306 305 305 305 305 305 306 306 305 304 304 304 304 304 304 304 304 303 302 303 303 302 302 301 301 299 298 298 297 297 298 298
306 305 304 303 304 304 303 304 303 303 303 302 302 302 301 301 304 306 306 306 305 305 304 304 305 305 304 304 303 301 302 301 301 301 301 299 298 298 297 296 297 298 298
303 302 301 300 299 298 297 296 297 296 296 296 295 296 297 299 301 303 303 304 303 303 304 302 302 302 301 301 301 302 301 300 301 301 299 299 298 297 296 296 298 298 298
303 302 301 300 298 296 295 295 295 295 294 295 295 296 297 299 300 301 301 301 302 302 302 302 301 301 301 300 300 299 299 299 300 299 299 298 297 296 296 296 297 298 297
308 306 304 302 300 298 298 299 300 298 297 295 294 297 299 299 300 300 301 301 301 300 300 300 300 300 300 299 299 298 298 298 297 298 297 296 296 295 295 296 296 297 297
308 307 306 305 304 304 303 303 303 301 299 298 297 298 299 299 299 299 300 300 299 299 299 299 299 298 298 297 297 297 297 298 297 297 295 295 295 295 295 295 295 296 297
310 310 309 309 309 308 307 306 305 303 301 301 300 299 299 299 299 300 300 298 298 298 298 298 297 297 297 296 296 296 296 297 297 295 295 294 294 294 294 294 294 294 296
310 310 310 309 309 309 309 308 307 306 304 302 302 301 301 300 300 299 298 298 298 298 298 297 297 296 296 296 296 296 296 296 295 295 295 294 293 293 294 294 294 294 295
311 311 311 311 311 310 309 309 308 306 302 301 296 297 299 299 298 298 298 298 298 298 297 297 297 296 296 296 296 296 296 295 294 294 293 292 292 293 294 294 294 294 294
313 312 312 312 311 309 309 308 307 307 302 302 299 299 299 299 299 299 299 298 298 298 298 298 297 297 297 296 296 297 296 294 293 294 293 292 291 293 294 294 294 294 293
313 312 312 311 310 309 310 308 307 305 304 302 301 299 299 299 299 299 299 299 298 298 298 296 296 295 294 294 294 296 296 295 295 294 291 288 291 293 293 293 292 293 293
308 311 311 311 310 310 309 308 307 305 303 302 301 300 300 299 299 299 299 299 298 298 297 296 296 296 294 294 295 294 293 292 291 288 287 287 291 293 293 292 292 292 292
308 309 309 310 310 309 309 308 308 304 303 303 302 300 300 300 300 299 299 299 298 298 298 298 297 296 295 295 293 290 290 289 288 289 289 290 292 292 292 292 291 292 292

GFSGL_925_thetae_006.txt.gz
Theta_e
344 343 337 339 338 338 339 340 338 338 339 340 340 341 340 340 340 339 339 340 340 339 340 340 340 341 338 337 338 337 338 338 336 339 340 340 339 341 338 335 337 332 330
343 344 338 339 340 339 337 339 339 339 338 340 340 339 340 340 340 340 340 340 339 339 338 336 335 336 335 338 338 337 338 338 337 337 339 337 339 336 336 332 332 336 336
343 345 341 338 341 339 338 338 338 338 339 339 338 338 339 339 339 338 338 337 336 337 337 338 337 335 334 335 333 332 332 334 336 337 336 336 336 336 334 331 332 332 331
345 342 343 341 341 340 340 338 337 338 339 336 335 335 335 335 335 334 333 333 332 332 332 332 332 332 330 328 328 329 330 329 334 333 333 333 333 333 330 327 322 321 320
346 342 341 340 341 342 339 337 334 336 337 336 334 334 334 334 335 334 334 333 333 332 330 330 331 332 331 330 331 330 329 328 328 333 333 333 332 331 329 325 321 320 320
345 343 340 341 342 341 340 339 333 334 333 333 333 332 333 332 331 331 331 330 329 328 328 328 328 330 330 329 329 328 328 328 329 328 331 330 327 326 327 329 323 319 318
343 343 341 340 340 339 338 338 335 334 332 330 330 332 331 330 330 329 329 328 327 326 325 325 324 323 323 324 324 326 327 329 329 330 329 323 320 321 320 320 323 322 316
342 343 340 340 339 338 337 335 332 331 329 327 326 327 330 331 330 329 328 326 324 321 319 318 321 318 314 315 316 315 313 316 320 321 319 314 312 316 316 316 316 316 314
341 341 339 339 336 334 332 330 328 327 324 323 324 326 328 330 327 324 323 322 318 315 316 318 317 311 308 310 310 311 310 310 310 309 309 308 308 310 312 312 311 314 311
329 336 338 336 334 329 325 323 321 320 317 318 319 320 320 320 319 319 318 314 312 313 315 316 313 311 313 313 312 312 311 310 310 310 309 308 308 309 310 309 308 308 307
323 327 330 330 330 326 324 320 320 318 315 313 312 312 315 315 312 312 312 311 310 309 309 310 312 312 311 310 310 310 309 309 310 309 308 307 306 306 304 303 304 304 304
318 320 319 321 318 320 320 316 314 314 311 310 311 311 311 311 312 311 308 307 308 308 309 310 310 309 310 310 310 310 310 309 308 306 304 303 301 301 301 302 302 303 303
314 312 311 311 312 311 313 310 310 310 310 309 309 309 309 310 310 310 309 310 310 310 308 306 305 305 305 304 303 303 303 303 302 301 301 302 300 298 298 298 298 298 298
311 310 309 310 309 310 310 309 309 308 308 307 307 306 307 308 309 309 307 305 304 304 304 304 304 303 303 302 302 302 302 301 301 301 300 299 298 297 297 296 298 298 298
307 307 308 308 307 308 306 307 308 308 308 307 306 305 305 304 304 304 304 304 304 304 304 304 304 304 304 303 301 301 300 300 300 299 299 298 297 297 296 296 297 298 298
303 302 301 300 300 299 297 296 296 296 297 299 301 303 303 305 305 304 304 303 303 304 302 301 301 300 300 302 301 299 299 300 299 299 298 297 297 296 296 296 297 297 297
303 301 299 297 296 296 296 296 295 296 296 295 296 298 299 301 302 302 301 301 302 302 301 301 301 300 299 299 299 298 298 298 298 298 297 296 295 295 295 296 297 297 297
300 299 298 297 298 299 298 297 296 295 294 296 297 299 299 299 299 300 301 301 302 302 301 300 300 299 299 299 298 297 298 297 297 295 295 295 295 295 295 295 295 296 296
303 300 300 301 301 301 300 299 298 297 296 298 299 299 299 299 299 299 299 300 299 299 299 299 298 298 297 296 297 296 296 298 296 295 295 294 294 294 294 294 294 294 296
306 306 305 304 303 302 301 301 299 299 299 298 299 299 299 299 299 299 298 298 298 298 298 298 297 297 296 296 296 296 296 297 295 295 294 294 293 293 294 294 294 294 294
308 309 308 306 305 304 303 303 302 300 301 300 300 299 299 300 300 300 298 298 298 297 297 297 297 296 296 296 296 296 296 295 295 295 294 292 293 293 293 293 294 294 294
309 309 309 309 308 307 306 306 305 303 303 302 302 302 300 298 299 298 298 298 298 297 297 297 296 296 296 296 296 296 296 295 295 295 293 293 291 293 294 294 293 294 293
310 311 311 310 310 309 308 307 306 305 303 299 297 299 298 298 298 298 298 298 298 298 297 297 297 296 296 296 296 296 297 296 294 294 294 294 290 293 293 293 293 293 293
311 312 311 311 310 309 309 308 307 305 302 299 299 299 298 298 298 299 299 298 298 298 297 297 296 295 295 294 294 295 295 295 294 294 291 288 290 292 293 292 292 292 292
308 309 311 311 310 309 309 309 306 305 304 302 300 299 299 299 299 299 299 299 298 298 298 296 295 296 293 294 294 293 293 291 290 288 287 287 289 292 292 292 291 291 292
308 309 310 311 311 309 309 309 307 305 303 302 301 299 299 299 299 299 299 299 298 298 297 296 297 297 296 295 294 293 291 290 289 291 291 288 292 292 292 293 292 292 293

GFSGL_925_thetae_009.txt.gz
Theta_e
343 339 337 338 337 337 338 338 338 338 340 340 340 339 340 340 341 341 340 340 340 340 340 340 340 340 340 339 338 337 336 336 337 337 338 339 340 339 337 337 338 336 334
342 341 338 339 338 337 337 337 338 338 339 339 339 339 339 339 339 339 339 340 340 339 339 339 339 339 338 336 337 337 337 338 337 336 337 337 338 336 335 334 334 330 334
343 343 338 339 340 337 337 337 337 338 337 337 337 338 338 338 339 339 339 338 338 338 337 336 336 336 336 337 336 335 335 336 337 337 334 335 335 335 333 333 334 332 327
343 343 342 339 340 339 337 336 338 337 335 335 335 335 334 334 335 335 336 335 335 335 335 336 335 335 335 333 333 333 333 333 333 333 333 333 333 332 331 326 324 322 318
344 342 341 341 341 340 337 335 337 336 334 333 334 334 334 333 332 332 332 331 331 331 331 330 329 328 328 328 329 329 329 330 332 332 332 332 332 330 329 325 320 321 318
344 342 340 339 341 339 335 334 334 333 332 332 332 332 331 331 331 331 332 331 330 329 328 328 328 329 329 329 329 328 328 330 328 328 328 329 328 329 330 328 322 319 317
342 344 340 340 341 339 337 334 333 332 331 331 330 330 329 328 329 329 328 328 326 324 324 323 323 323 324 325 325 326 327 328 328 328 328 322 320 320 321 322 321 320 316
341 342 340 341 338 338 336 334 331 329 329 328 328 329 328 328 328 328 327 325 320 318 319 322 315 315 315 315 315 313 311 312 315 317 315 313 314 316 316 318 320 318 312
333 340 340 340 336 335 334 330 328 326 324 325 325 327 327 326 325 324 324 321 317 317 317 317 309 309 309 310 310 310 310 309 309 309 308 308 308 309 311 312 313 312 309
327 334 338 337 335 334 330 326 322 323 322 322 322 322 321 319 319 320 318 315 315 315 312 310 311 312 312 312 311 311 310 310 309 308 308 308 308 307 309 308 309 309 308
323 328 332 332 330 326 325 323 319 318 317 318 319 316 314 313 312 314 314 315 315 313 311 310 309 310 310 310 310 310 310 310 308 308 306 303 302 302 302 302 302 302 303
319 321 319 319 320 319 319 316 315 314 313 311 312 310 310 311 312 310 310 311 311 310 309 309 310 309 307 306 308 306 308 307 307 304 302 301 300 299 300 301 298 302 303
316 314 313 313 314 313 312 310 311 311 311 310 311 309 308 309 308 308 308 310 311 310 307 305 304 304 303 303 303 302 302 302 301 300 300 298 298 297 297 297 297 297 298
312 311 312 313 312 312 312 310 310 311 309 309 309 308 309 309 309 309 307 306 305 304 304 303 303 302 302 301 301 301 300 301 299 298 297 297 297 296 296 297 297 297 298
310 309 310 310 310 310 309 308 309 309 310 309 308 308 308 306 305 304 304 304 304 304 304 304 303 303 301 300 300 300 301 299 299 298 297 297 296 296 296 297 297 297 297
305 305 304 305 304 304 302 300 302 305 306 306 306 305 304 305 305 304 303 303 304 303 302 301 300 301 301 299 299 299 299 298 298 298 297 296 296 295 296 297 297 296 296
308 305 302 299 297 296 296 295 295 295 297 299 302 304 303 303 303 302 302 302 302 301 300 300 299 299 299 298 298 298 296 297 297 296 295 295 295 294 295 295 296 296 296
303 300 298 297 298 297 296 296 295 295 296 297 298 300 301 300 299 300 302 301 301 301 301 300 299 299 298 298 297 296 296 296 295 295 295 294 294 294 294 294 294 295 295
299 299 300 299 298 298 297 296 295 296 298 299 299 298 298 298 299 300 301 301 301 300 299 299 298 297 296 296 296 296 296 297 296 295 294 294 293 293 294 293 293 293 294
301 301 301 301 300 299 298 297 296 296 298 299 299 299 298 298 298 299 300 299 299 299 298 298 297 296 296 296 296 296 296 296 295 294 294 293 293 293 293 293 293 294 294
304 302 302 301 302 302 301 300 299 298 298 298 299 299 299 299 299 298 298 297 297 297 297 297 297 296 296 296 296 296 296 296 295 294 294 293 293 292 293 293 293 293 294
306 305 305 305 304 303 303 303 302 301 300 300 299 299 299 300 299 300 298 298 297 297 297 296 296 296 296 296 296 296 296 296 295 295 294 293 294 292 293 293 293 293 293
310 310 309 308 308 307 307 305 304 304 302 302 301 301 301 299 299 298 298 298 298 297 297 296 296 296 296 296 296 296 296 296 296 294 294 294 292 291 293 293 292 292 292
312 312 310 309 309 308 307 306 306 306 304 303 299 298 300 298 299 298 298 298 298 297 297 297 297 296 296 295 294 293 294 295 294 294 293 290 288 291 292 292 292 292 292
308 308 310 311 310 309 308 308 307 306 305 304 300 298 299 298 298 298 298 298 298 298 297 297 297 295 296 294 294 292 293 293 292 290 288 287 287 291 292 291 291 291 291
307 308 308 310 311 310 309 308 308 307 306 305 302 299 299 298 298 298 299 299 298 298 298 298 297 296 296 295 295 295 293 291 289 290 291 290 289 292 292 292 292 292 293

GFSGL_925_thetae_012.txt.gz
Theta_e
341 340 336 337 337 337 337 337 337 339 339 339 339 339 339 340 341 340 341 341 341 342 342 340 340 340 339 340 340 339 337 337 337 337 338 338 337 338 338 338 337 335 333
342 340 337 338 337 336 336 336 338 338 337 337 338 338 338 339 339 339 339 339 339 338 340 339 339 339 339 338 337 337 336 336 337 336 336 336 336 335 334 333 332 331 331
342 341 337 339 339 337 336 336 337 335 336 336 336 336 337 337 338 339 339 338 337 338 338 338 337 338 337 337 337 336 336 337 337 336 334 334 334 333 331 331 329 327 326
341 342 339 338 339 338 336 337 336 334 334 334 333 334 334 335 336 336 336 335 334 334 335 336 335 335 334 334 334 334 335 334 333 333 333 332 331 331 331 328 324 322 321
342 343 342 338 339 338 335 336 335 333 334 334 333 333 332 332 332 333 332 331 331 330 329 328 328 328 329 329 330 329 331 332 332 332 331 332 331 330 329 326 321 319 316
341 342 340 340 339 337 334 335 333 332 332 332 331 330 330 330 331 331 331 331 330 329 327 327 328 329 329 329 329 329 329 329 328 328 329 328 324 324 325 325 321 319 317
340 342 339 339 339 335 334 332 331 330 331 330 328 327 327 327 328 328 328 327 326 324 323 323 323 323 323 324 323 323 324 325 327 327 321 319 317 319 320 321 320 318 315
338 340 339 339 339 336 333 331 329 328 328 328 327 326 326 326 326 326 325 322 320 321 315 314 315 314 313 313 313 312 310 310 312 313 314 315 315 314 315 318 320 315 313
331 335 339 339 337 336 333 330 327 326 325 326 326 327 326 325 324 323 322 318 317 316 309 309 310 310 310 310 311 309 308 307 307 308 307 308 308 309 310 312 312 312 310
327 332 336 338 335 334 332 328 325 323 323 323 324 323 321 320 319 317 318 317 313 310 311 312 311 311 311 311 311 310 309 308 307 306 304 303 303 303 302 303 305 309 308
323 327 331 332 330 329 327 323 320 320 320 319 319 316 315 315 314 314 315 314 312 311 309 309 309 309 310 310 310 310 309 308 304 302 300 299 300 301 300 299 302 303 304
320 321 322 322 322 321 321 316 314 316 316 313 312 309 309 310 311 311 314 314 312 310 309 307 306 306 306 306 306 306 307 306 303 300 299 297 297 297 297 297 297 301 302
316 315 316 317 316 314 313 311 311 312 311 310 309 309 307 307 308 308 309 310 310 309 305 304 303 302 302 302 302 302 302 301 300 298 297 296 296 296 297 297 297 298 300
313 312 312 313 313 313 312 313 313 312 310 310 309 308 309 309 308 309 309 308 305 304 303 302 302 301 300 300 300 300 300 299 298 297 296 296 296 296 297 297 297 297 300
311 311 311 311 311 310 310 310 311 310 311 310 309 309 309 307 305 305 305 304 304 303 303 302 301 301 300 300 300 299 298 298 298 297 297 296 296 296 296 296 297 297 297
309 309 309 308 308 308 307 306 307 308 309 309 310 310 307 305 304 304 303 304 304 303 302 301 302 300 299 298 298 298 298 298 297 296 295 295 295 295 296 296 296 296 296
310 309 308 306 303 301 300 301 298 300 303 304 304 305 304 304 302 302 303 302 301 301 300 300 299 299 298 297 297 296 296 297 295 295 295 294 294 294 294 294 295 295 296
304 300 298 296 296 295 295 295 296 298 299 300 301 302 301 301 301 302 301 301 300 300 300 299 299 298 297 297 296 296 296 295 295 295 294 294 293 293 293 293 293 294 295
299 298 298 298 297 296 295 295 296 296 297 299 299 299 298 299 300 301 301 300 300 299 299 298 298 296 296 296 295 296 296 296 295 294 294 293 293 293 293 293 293 293 294
301 301 300 300 299 298 297 296 296 297 298 299 299 298 298 299 299 300 300 301 299 299 298 297 297 296 295 295 295 295 296 296 295 294 294 293 293 292 293 293 293 293 293
301 302 302 301 301 301 300 298 297 297 298 298 299 298 298 298 298 298 300 298 298 298 298 297 297 296 295 295 295 295 295 295 295 294 294 293 293 293 292 293 293 293 293
304 303 302 302 302 302 302 301 300 299 298 298 298 298 298 298 299 299 298 297 297 297 297 297 296 296 296 296 295 296 296 296 295 294 294 293 293 293 293 293 292 292 292
307 306 306 306 307 306 303 302 302 302 301 301 300 299 299 299 300 299 299 298 297 297 297 297 296 296 296 296 295 295 296 296 296 295 293 293 293 289 292 292 292 292 292
308 308 310 309 308 308 307 307 306 305 304 304 303 301 300 301 300 298 298 298 298 298 297 297 296 296 296 296 295 294 293 294 295 294 294 293 290 288 292 292 291 291 292
311 311 310 308 309 309 309 308 307 306 306 306 305 303 300 299 300 298 298 298 298 298 298 297 297 297 297 295 294 294 292 292 293 293 291 288 287 287 291 292 291 291 291
307 307 307 308 309 309 309 308 308 307 307 306 305 305 303 300 299 299 298 298 298 298 298 298 297 297 297 296 295 295 295 293 291 289 290 291 290 288 292 292 292 292 292

GFSGL_925_thetae_015.txt.gz
Theta_e
344 342 338 339 339 339 339 339 339 338 337 338 338 339 339 340 341 340 341 341 339 338 339 340 342 343 343 342 343 342 342 341 340 338 337 338 337 337 338 338 336 334 334
344 343 340 341 340 339 339 339 338 337 336 337 337 337 340 338 339 339 340 339 338 338 338 337 338 340 339 340 340 339 338 337 336 337 336 336 335 333 332 332 330 330 330
344 344 340 341 342 340 339 338 337 336 336 335 335 335 335 335 336 337 337 337 337 337 337 337 337 338 338 339 338 337 337 336 336 336 335 335 331 328 328 327 328 327 329
344 344 342 341 342 341 338 336 335 335 335 334 334 334 334 334 334 333 334 334 334 334 334 334 334 334 334 334 334 333 334 335 334 333 332 331 330 328 328 326 323 324 324
344 343 344 341 341 340 336 334 333 333 332 333 333 333 332 331 330 330 329 329 330 329 329 329 329 330 331 331 330 330 332 332 331 331 331 331 330 328 326 324 319 318 317
343 344 345 343 341 339 335 333 332 331 330 331 331 330 329 327 331 331 329 327 327 326 326 326 327 328 328 328 328 329 329 329 329 329 327 324 319 320 322 323 319 318 317
342 343 344 343 342 337 334 333 331 329 328 328 327 327 325 325 327 328 327 325 323 322 322 321 321 321 322 321 321 323 323 325 326 325 319 318 316 317 320 320 319 317 314
338 340 345 342 341 335 333 331 328 328 327 327 326 326 325 324 324 323 324 322 317 315 315 316 316 315 313 314 313 312 311 311 312 312 312 312 313 315 318 319 318 315 313
330 332 339 339 337 333 331 327 325 325 325 323 325 325 324 323 321 320 319 318 314 314 314 314 314 312 310 312 313 312 311 308 306 306 305 305 306 308 311 313 312 316 314
323 328 334 337 337 332 327 323 322 323 323 322 322 319 320 319 317 318 317 316 314 314 313 311 311 311 311 313 315 314 312 310 308 307 306 306 305 301 302 306 307 312 313
322 326 331 333 331 329 325 320 319 319 318 318 316 313 314 315 315 315 316 313 312 312 311 309 308 310 310 311 312 311 309 305 304 303 303 302 301 300 300 301 305 306 308
320 321 322 323 324 323 321 318 317 316 316 313 312 311 311 312 313 314 314 313 311 309 307 306 305 306 306 307 308 307 304 306 305 304 302 301 301 300 300 300 303 304 305
317 316 315 316 317 317 316 314 312 312 311 309 310 308 308 309 310 312 312 311 311 308 304 303 302 302 302 302 302 302 303 304 303 302 301 300 299 300 300 300 301 305 306
314 312 312 312 312 313 313 313 314 314 313 311 309 308 308 308 309 309 309 307 305 304 303 302 301 301 301 301 302 302 301 301 301 301 300 299 299 299 299 299 300 301 302
310 310 310 310 311 311 310 311 311 311 312 311 310 309 308 308 308 307 306 304 304 303 303 303 303 302 302 302 301 301 301 301 301 300 299 299 298 299 299 299 299 299 299
312 310 309 307 309 308 308 308 309 310 311 310 310 310 308 306 305 304 304 303 303 303 304 304 303 302 301 301 301 300 300 300 299 299 298 297 297 298 299 298 298 299 299
311 309 306 306 305 302 305 304 302 303 306 307 307 306 305 304 303 303 303 303 301 302 303 303 302 301 301 300 299 299 299 299 298 298 297 296 296 297 297 297 298 298 299
304 302 301 299 299 299 300 301 304 305 305 303 303 302 302 301 302 302 301 301 301 301 301 301 301 300 299 299 299 299 298 297 297 297 297 296 295 296 296 296 297 297 298
301 300 300 299 299 299 299 299 300 301 302 302 301 300 299 300 301 301 301 302 301 301 300 300 300 298 298 298 298 298 299 298 297 297 297 296 296 296 296 296 296 295 295
301 301 301 301 301 300 300 301 301 301 301 302 302 302 300 300 301 302 302 302 301 300 300 300 299 298 298 298 298 298 298 297 297 297 297 296 296 296 296 295 296 296 296
304 302 303 304 304 304 303 302 302 302 302 301 302 300 299 301 301 301 301 301 300 300 300 299 299 298 298 298 298 298 297 297 297 297 296 296 296 296 295 295 295 296 296
305 305 305 305 305 305 305 304 303 302 302 302 301 300 298 299 300 300 300 300 299 299 299 299 299 298 298 297 297 298 297 297 297 296 296 296 296 295 294 295 295 295 296
308 307 308 308 307 306 305 305 305 305 304 303 303 301 300 300 301 301 301 300 299 299 298 298 298 297 297 297 297 298 297 297 297 297 296 296 295 294 293 295 295 295 295
310 310 311 311 312 311 310 309 308 306 307 306 305 304 303 302 301 302 301 300 299 299 299 299 298 298 298 298 298 297 296 295 296 296 296 295 294 291 292 294 294 294 295
312 311 312 313 311 310 311 310 310 310 308 307 307 306 305 304 302 302 301 300 300 299 299 299 299 298 298 298 298 297 295 292 294 294 294 293 292 291 292 294 294 294 294
309 309 308 309 309 310 310 310 310 309 308 308 308 307 306 305 304 302 302 301 300 300 300 300 299 299 299 299 298 297 296 295 293 291 293 292 292 292 291 293 294 295 294

GFSGL_925_thetae_018.txt.gz
Theta_e
347 345 343 344 343 343 342 341 342 343 343 343 340 338 343 344 344 344 344 342 343 342 341 343 344 344 344 344 343 343 344 344 345 343 342 340 338 337 337 336 336 334 334
346 346 344 344 344 344 342 341 341 342 341 341 341 340 337 339 341 342 341 340 340 340 340 340 341 341 343 344 344 344 344 342 340 339 337 336 334 331 331 330 329 329 330
346 346 345 344 345 344 342 341 341 340 340 340 340 339 339 337 336 337 336 336 337 337 337 337 337 338 339 339 339 338 338 338 337 336 336 335 328 327 326 326 327 327 328
346 347 346 345 345 344 342 340 340 339 339 338 338 337 337 337 337 337 334 333 333 332 332 333 333 333 333 334 333 333 334 334 334 333 332 330 328 327 326 324 322 322 322
347 346 347 346 345 344 340 339 338 338 338 337 337 336 335 333 334 335 334 332 329 326 328 328 329 330 330 330 331 331 331 331 331 332 331 329 327 325 325 323 318 318 316
347 347 347 347 345 344 340 339 338 336 336 334 334 334 332 330 331 331 332 331 329 328 324 324 326 327 328 328 328 329 329 329 329 328 324 322 320 321 322 322 318 318 317
348 347 347 347 346 343 340 338 337 335 333 332 332 332 330 326 327 328 329 330 328 327 326 322 321 319 319 319 321 322 323 325 325 324 320 318 317 318 321 321 319 317 315
342 343 345 347 345 341 340 338 335 332 331 331 330 330 327 323 323 325 326 324 324 324 324 323 321 320 319 319 317 315 314 314 316 316 316 316 316 318 320 319 317 316 315
338 335 336 341 345 339 339 336 335 332 328 329 330 330 327 321 321 322 324 322 321 320 320 318 317 315 315 316 317 315 312 308 306 305 304 304 307 311 314 317 316 317 315
328 329 330 335 340 338 338 333 332 331 330 327 326 325 321 320 319 320 322 322 321 318 316 313 313 313 314 318 320 319 316 314 312 312 310 308 307 305 307 311 312 316 318
323 323 327 331 336 335 331 329 328 329 327 324 319 318 317 317 316 317 319 322 321 319 314 311 309 311 312 314 316 314 312 310 308 310 309 307 306 305 305 308 309 309 310
319 321 322 323 325 325 324 323 323 323 323 322 319 316 314 312 314 315 315 315 314 311 307 307 305 307 309 310 309 307 307 309 309 307 306 305 305 304 304 305 307 308 307
317 316 316 316 316 318 318 316 317 318 316 313 311 310 310 312 312 311 312 311 310 309 308 304 303 303 304 303 303 304 306 307 306 306 305 304 303 303 304 304 306 308 306
314 313 313 313 313 313 314 315 315 313 313 311 311 310 310 310 310 309 308 307 306 304 303 305 304 304 303 303 305 305 305 305 305 304 304 303 303 303 303 303 303 304 306
315 314 312 310 310 311 311 311 312 312 312 312 310 310 309 310 310 308 309 309 306 305 303 306 307 306 306 305 305 304 304 304 304 303 303 302 302 302 302 302 302 302 303
317 315 312 309 307 307 307 308 309 310 311 311 310 310 309 309 307 306 305 304 303 304 307 307 306 306 305 305 304 304 303 303 302 302 301 301 301 301 302 302 302 302 302
317 315 313 314 313 311 309 308 306 306 308 309 308 307 306 305 304 304 304 303 303 303 306 307 306 305 304 303 303 303 303 302 301 301 300 300 300 300 300 301 301 301 302
311 309 308 307 307 307 308 310 311 312 310 307 304 302 303 303 303 302 302 301 302 303 305 304 304 303 302 302 302 302 301 301 301 300 300 299 299 299 300 300 300 300 301
306 306 306 306 305 305 306 306 306 306 307 306 304 301 301 302 302 301 301 304 304 304 303 303 303 302 301 301 301 301 301 301 300 300 300 300 300 300 299 299 299 296 296
306 306 307 307 307 307 308 308 307 306 306 306 306 305 303 301 303 303 303 304 304 303 303 303 302 301 301 301 301 301 301 300 300 300 300 300 299 299 299 298 299 299 300
308 307 308 310 310 310 309 309 308 308 306 305 305 304 303 304 305 304 304 304 304 303 303 302 302 302 301 301 300 301 300 300 300 300 300 299 299 299 298 298 298 299 299
310 310 311 311 311 311 311 310 310 309 308 307 305 303 300 301 303 303 303 303 302 302 302 302 302 302 301 301 300 300 300 300 300 299 299 299 299 298 298 298 298 298 299
312 312 312 313 313 311 312 311 311 311 310 309 307 305 302 302 303 303 303 303 303 302 302 301 301 300 300 300 300 300 300 300 300 300 300 299 299 298 297 297 298 298 298
313 314 314 314 314 314 313 314 314 311 311 311 310 308 307 305 304 303 303 303 303 302 302 302 301 301 300 300 300 300 299 299 298 298 299 298 298 298 295 295 297 298 298
315 315 315 315 314 313 312 312 312 313 313 312 311 310 309 308 307 306 305 305 304 303 302 302 302 301 301 300 300 300 299 297 295 296 297 297 297 297 295 295 297 297 298
314 313 312 311 310 313 311 312 312 312 313 312 312 312 311 310 310 308 306 305 305 304 303 303 303 302 302 301 301 301 300 298 296 295 296 296 296 296 296 295 296 297 297

GFSGL_925_thetae_021.txt.gz
Theta_e
348 346 345 345 344 344 344 344 343 343 341 341 341 342 343 345 345 346 345 345 345 344 343 343 344 346 346 343 344 345 344 346 346 343 340 342 338 336 334 332 331 333 333
348 347 346 345 345 345 343 343 342 342 342 341 340 340 340 341 342 342 341 340 341 341 342 342 343 342 344 345 346 346 345 345 345 343 342 336 333 330 329 329 327 326 329
348 347 346 346 346 345 343 342 341 341 341 340 339 338 340 341 340 339 337 335 334 334 335 336 337 338 337 337 337 338 339 340 338 338 337 333 327 327 326 326 325 324 323
347 346 346 346 346 346 343 341 341 340 340 338 338 337 338 338 337 336 336 334 331 330 331 331 331 332 332 333 333 334 335 335 334 333 331 329 327 326 325 323 321 320 319
347 346 347 347 346 346 343 341 340 339 339 338 336 336 335 334 334 336 334 333 332 328 327 329 329 329 330 330 332 332 332 332 332 332 330 327 326 325 325 323 318 317 316
347 346 347 348 347 347 344 341 340 338 338 337 336 334 334 330 331 332 333 333 331 331 330 329 327 325 326 327 328 329 330 331 330 327 325 323 323 323 323 322 318 318 316
350 349 348 349 348 347 344 341 339 337 336 336 334 334 332 327 328 330 331 331 331 329 328 326 325 323 325 323 323 323 321 324 326 326 324 322 322 321 323 321 320 320 317
349 348 348 349 350 348 345 341 338 336 335 334 333 331 329 324 326 325 328 329 328 327 326 326 325 322 321 321 318 315 313 315 318 319 319 319 320 322 321 322 321 318 316
344 340 340 342 346 345 344 340 338 335 334 332 332 331 329 324 323 324 326 327 326 325 321 320 320 318 318 320 319 316 313 310 307 307 306 306 312 315 315 320 321 321 319
333 332 332 331 339 341 341 338 336 333 333 331 330 328 325 324 321 323 323 326 324 321 318 315 314 315 318 321 322 321 319 318 317 315 313 311 311 309 309 312 314 317 318
329 328 326 331 335 339 338 335 334 334 330 328 325 323 322 319 319 320 323 325 324 322 318 314 312 312 314 318 319 319 317 314 312 314 311 309 308 308 309 310 312 311 313
325 323 320 323 326 329 331 330 330 330 328 325 324 323 317 314 316 317 318 319 318 317 314 311 309 311 312 311 311 310 310 311 312 309 308 307 307 307 307 309 311 309 310
322 320 316 317 318 319 322 322 323 323 321 318 317 313 312 312 312 312 312 312 312 314 311 306 304 305 305 305 305 306 307 309 308 308 307 306 306 306 308 309 311 310 309
320 316 313 313 313 314 314 315 316 317 315 314 312 312 311 311 310 311 309 310 309 306 304 306 306 306 305 305 306 307 308 307 307 307 306 306 305 305 305 305 305 306 308
321 318 316 312 311 312 312 312 312 312 313 313 313 313 314 312 310 309 309 309 309 307 304 306 307 309 309 308 307 307 307 307 307 306 305 305 304 305 304 304 304 305 305
322 320 317 315 313 312 310 308 310 311 312 311 311 311 311 311 309 309 309 309 306 305 307 310 310 309 308 308 307 307 306 305 305 305 304 303 303 303 304 304 304 304 305
320 319 317 318 317 316 314 313 310 308 309 310 310 310 309 309 307 305 304 303 303 304 308 310 309 308 307 306 306 305 306 305 304 303 303 302 302 302 301 303 303 303 304
320 318 318 316 315 315 316 317 316 315 313 308 305 305 305 304 304 304 303 302 304 305 307 308 307 306 305 305 305 304 304 303 303 303 302 302 301 301 302 302 302 302 303
310 310 310 309 309 309 309 309 310 310 310 309 306 303 303 303 302 301 301 304 308 307 306 306 306 305 304 304 304 304 304 303 303 303 302 302 302 302 302 301 301 298 297
310 309 309 310 310 311 311 311 310 309 309 309 308 308 304 303 303 303 303 306 306 306 306 305 305 305 304 303 303 303 303 303 302 301 302 302 302 301 301 302 301 302 302
310 310 311 312 312 312 312 311 311 310 308 308 308 306 305 305 307 307 307 307 306 306 306 305 304 304 304 303 303 303 303 302 303 303 302 302 302 301 302 301 301 301 301
312 312 313 313 313 313 313 313 312 311 310 309 308 305 302 302 305 306 306 306 305 305 304 304 304 304 304 303 303 303 302 302 302 302 302 302 302 301 301 300 300 301 301
314 314 314 314 315 314 315 314 314 313 313 312 311 308 305 304 304 305 305 305 305 305 304 304 303 303 302 302 302 302 302 302 302 302 302 302 301 301 301 300 299 300 301
315 315 316 316 315 315 315 315 314 314 314 313 312 312 310 309 308 307 307 306 306 306 305 304 304 304 303 302 302 302 301 301 301 301 301 301 301 301 300 300 298 299 300
316 317 316 316 314 314 314 315 314 314 313 313 313 312 312 311 311 310 309 308 307 307 306 305 305 304 304 303 302 302 301 300 300 299 298 299 300 300 300 300 298 298 299
316 315 314 314 314 314 313 314 314 313 313 313 312 312 312 311 311 311 310 310 310 308 307 306 305 305 305 304 304 303 302 302 301 300 298 297 298 299 299 298 298 297 298

GFSGL_925_thetae_024.txt.gz
Theta_e
349 347 347 346 346 343 344 341 341 341 341 340 340 340 340 342 342 343 342 344 343 343 341 342 343 343 343 342 343 343 343 342 344 343 341 338 336 334 332 331 330 330 330
349 347 347 346 346 342 344 343 341 341 339 338 338 341 341 339 338 339 339 340 339 339 341 341 341 341 342 343 343 343 343 343 343 343 340 332 330 329 328 328 327 325 325
349 348 347 347 345 344 342 342 340 339 339 337 337 339 337 337 337 336 335 334 334 334 334 334 335 335 336 337 337 339 339 339 339 339 334 330 325 325 324 323 323 322 320
349 348 347 347 347 345 344 342 340 340 340 338 336 335 335 336 334 333 333 331 331 330 331 330 330 331 333 333 334 334 335 335 334 333 330 328 325 325 324 321 319 319 318
348 347 347 346 346 345 343 342 340 338 338 338 337 335 334 333 334 334 332 331 330 330 328 327 327 329 330 332 332 332 332 333 332 330 328 326 326 325 325 322 317 317 316
348 347 347 347 346 345 344 342 340 338 337 337 336 334 330 329 332 332 332 330 329 329 328 327 326 324 324 327 328 330 331 331 329 328 326 325 324 324 324 321 318 319 317
351 350 348 347 346 346 344 341 340 337 337 336 335 332 328 328 330 330 331 330 328 328 328 326 326 324 325 323 322 320 322 324 327 326 324 324 323 323 323 321 321 320 317
349 347 345 346 348 347 344 341 339 336 334 334 332 330 325 326 327 329 329 328 327 326 325 324 322 320 320 317 313 312 314 316 318 320 321 321 322 322 322 321 320 318 317
342 340 338 337 341 348 344 340 339 335 333 332 331 330 327 324 324 325 327 326 325 322 320 321 320 318 320 320 317 314 312 311 311 310 309 310 314 315 314 318 321 321 320
334 331 330 330 337 344 343 339 337 335 333 332 330 328 326 322 323 323 325 326 323 320 317 314 315 318 320 323 322 321 320 318 317 315 312 310 309 310 310 312 312 316 317
328 327 326 329 334 339 339 338 335 333 332 328 326 323 322 320 320 321 324 324 325 321 317 314 312 313 317 320 321 320 318 315 315 314 312 310 309 308 310 310 310 312 313
324 321 322 324 328 331 333 333 333 331 328 326 325 318 318 316 318 319 319 320 320 317 314 312 311 312 313 313 313 312 311 310 311 313 308 308 308 308 308 308 305 306 306
321 319 318 319 321 323 325 326 327 327 325 322 319 315 313 314 316 315 314 315 315 314 311 306 306 306 306 305 306 307 308 309 310 309 308 307 307 305 307 310 310 309 308
319 317 315 316 316 317 318 319 319 318 318 317 315 313 313 312 312 311 311 312 311 310 306 306 306 306 305 307 308 308 307 307 307 307 306 306 306 305 305 305 308 311 310
321 318 316 315 313 313 314 314 314 314 314 314 314 314 314 314 311 309 309 309 309 308 305 306 306 306 308 309 308 308 308 308 307 306 305 305 305 305 305 304 304 305 306
322 321 319 317 316 314 312 311 312 312 313 313 313 313 313 312 311 309 310 310 310 306 307 309 311 311 309 308 308 308 307 306 306 305 304 303 304 303 303 304 304 304 305
322 321 320 319 318 317 315 314 310 310 311 311 311 311 310 309 308 307 306 305 304 304 306 309 310 309 308 307 306 306 307 306 305 304 303 303 302 303 302 303 303 304 304
323 322 322 321 320 320 319 318 315 314 312 308 308 307 307 306 305 304 304 303 304 303 305 309 308 308 307 306 305 306 305 304 304 304 303 302 302 302 302 303 303 303 302
314 313 312 311 311 311 311 311 311 312 312 309 306 305 304 304 303 302 301 302 306 309 308 307 307 306 305 305 304 304 304 304 303 303 303 302 302 302 302 303 302 301 300
311 310 311 311 312 312 312 311 311 310 310 310 310 308 304 303 304 304 303 305 306 308 307 306 306 306 305 305 304 304 304 304 303 303 302 302 303 302 302 302 302 302 301
311 311 312 313 313 313 312 312 312 311 310 309 309 307 307 306 307 308 308 307 308 307 307 306 306 305 305 304 304 303 303 303 304 304 303 303 303 302 302 302 302 301 302
312 313 314 314 314 314 313 314 314 313 312 311 308 307 305 304 304 306 307 307 306 306 306 305 305 305 304 304 304 303 303 303 302 303 302 302 302 302 302 302 302 301 301
314 315 315 315 316 315 316 316 315 315 314 314 313 307 304 305 304 305 306 306 307 307 306 305 305 304 304 303 302 302 302 303 302 302 303 303 303 302 302 302 301 301 300
316 316 317 316 316 316 316 316 315 314 314 314 314 313 311 311 310 310 309 308 308 307 307 306 305 305 305 304 304 303 302 302 302 302 302 301 301 301 301 302 301 301 300
317 318 316 316 314 315 316 315 315 314 314 314 314 314 313 313 312 312 312 311 311 310 309 308 307 306 305 305 305 304 303 302 301 301 301 300 299 298 300 301 301 301 300
316 314 314 314 313 313 313 312 312 312 312 310 311 311 311 310 310 309 309 310 309 310 310 309 309 308 308 307 306 306 305 304 303 302 302 300 299 298 298 299 300 300 299

GFSGL_925_thetae_027.txt.gz
Theta_e
348 348 346 346 343 343 341 340 341 339 337 338 339 338 338 338 339 340 339 339 339 340 340 340 341 342 341 340 340 341 342 342 339 339 335 330 328 330 329 329 330 330 329
348 346 347 345 342 343 342 340 339 338 337 337 337 337 336 336 335 335 335 335 335 336 337 337 337 338 339 339 340 340 341 342 341 339 331 327 325 326 326 325 324 323 323
347 347 347 346 342 342 340 339 339 338 336 335 335 336 334 334 333 333 332 332 333 333 333 333 333 334 334 335 337 338 338 339 338 338 331 326 322 323 322 321 321 321 319
348 347 348 346 344 342 341 339 338 338 336 336 335 334 334 333 332 331 331 330 330 328 329 330 330 331 332 333 334 334 334 334 333 331 328 326 324 323 321 319 318 317 317
349 347 347 347 345 343 342 340 338 337 337 337 334 332 332 332 332 331 330 329 328 327 326 326 327 329 331 331 331 332 332 331 330 327 327 326 326 325 323 320 317 316 314
348 348 347 347 344 343 342 340 337 337 337 335 334 330 331 331 331 330 329 329 328 326 326 324 323 322 323 326 329 331 331 329 328 326 325 324 324 324 322 320 317 317 316
349 348 348 347 345 344 342 340 337 336 335 334 331 327 329 329 329 330 328 328 328 327 326 324 322 322 319 322 322 324 325 327 326 325 324 323 323 324 322 321 322 320 317
346 344 345 346 347 345 343 340 338 336 334 332 330 326 326 327 327 328 327 326 325 325 323 320 319 318 316 313 314 313 313 316 321 321 322 322 322 322 322 321 320 318 317
336 335 335 336 341 347 342 340 337 335 333 331 330 327 324 324 324 327 325 325 323 321 320 319 318 320 319 318 317 314 314 313 311 310 312 314 311 312 316 319 317 318 318
331 330 330 333 338 343 342 340 337 334 333 331 328 327 322 322 322 323 327 323 319 317 316 315 318 320 321 320 319 319 316 316 314 310 309 310 309 308 310 311 313 318 319
327 327 330 333 336 340 340 338 336 333 331 328 327 323 321 320 320 322 324 324 320 317 316 314 314 315 319 320 321 319 316 316 315 315 312 311 308 306 305 306 308 311 313
324 323 325 328 331 334 337 336 334 331 327 325 322 320 318 317 318 319 320 319 317 317 315 313 312 313 313 313 313 311 309 308 309 311 308 309 308 307 307 308 306 306 305
321 321 322 324 326 327 329 329 329 327 325 321 320 317 315 315 315 316 315 316 316 315 312 306 306 307 304 306 307 307 308 307 309 307 306 306 306 306 307 309 309 308 307
319 318 319 320 319 320 322 322 323 321 320 318 316 315 314 313 312 312 311 312 311 309 307 307 307 306 306 308 308 308 306 307 306 306 306 306 306 306 305 305 309 310 309
318 317 316 316 317 316 316 315 316 316 316 316 315 315 315 313 310 309 309 310 310 307 306 306 307 307 307 308 309 308 308 307 306 305 304 304 304 305 304 304 304 304 310
318 317 316 315 314 314 314 313 313 314 314 314 314 314 314 313 311 310 310 310 310 306 307 308 309 310 311 308 307 308 306 306 305 304 303 303 303 303 302 303 303 303 304
321 319 318 317 316 315 313 313 312 312 312 312 312 312 311 311 309 309 308 307 306 305 305 305 308 308 306 306 306 306 306 305 304 304 303 303 302 301 302 302 303 303 304
321 320 319 318 318 317 315 313 312 311 310 309 310 310 309 308 307 305 304 303 302 305 306 305 308 307 306 305 305 305 305 304 304 304 303 303 302 302 302 302 303 303 302
323 320 315 316 318 318 318 316 314 312 309 307 307 306 305 304 303 302 300 301 306 307 307 309 307 306 306 305 305 304 304 303 303 303 303 302 302 303 302 302 302 301 301
311 311 310 310 311 311 311 311 312 312 310 308 307 306 303 302 303 302 302 304 307 307 307 306 306 306 305 305 305 304 303 303 303 303 303 302 302 303 302 302 302 302 301
310 311 311 313 313 312 312 311 311 310 311 311 309 308 306 305 306 306 307 306 307 307 306 306 305 305 305 305 305 304 303 303 303 303 303 303 303 303 303 302 302 301 301
312 312 312 313 313 314 314 313 313 312 310 309 308 308 306 304 305 305 305 307 308 307 306 305 305 305 305 304 303 304 304 303 303 302 302 303 303 302 302 302 302 301 301
313 314 314 315 315 316 316 316 315 314 314 313 309 307 305 304 306 305 305 306 306 306 306 306 305 305 305 304 304 304 303 303 302 302 302 302 302 302 302 302 302 302 301
317 316 316 316 316 315 316 315 314 314 314 314 312 310 308 308 308 309 309 310 308 308 307 307 306 306 305 305 305 304 304 303 302 302 302 301 301 301 301 300 300 301 301
317 316 315 314 314 312 312 311 312 313 311 310 313 313 311 312 311 311 311 311 310 310 310 309 309 307 307 307 306 305 305 305 303 303 302 301 301 301 300 300 298 299 300
314 312 311 311 311 312 312 312 310 309 309 308 309 308 308 308 307 307 307 306 307 307 306 306 305 304 305 305 305 306 307 306 306 305 300 300 301 301 301 300 299 298 299

GFSGL_925_thetae_030.txt.gz
Theta_e
347 346 346 343 343 340 339 339 337 336 337 336 337 336 335 336 337 337 337 337 337 338 338 339 340 340 340 341 341 340 341 340 336 332 332 331 330 329 329 329 329 330 329
347 347 346 342 342 340 339 338 337 335 335 335 335 335 334 333 333 333 334 334 334 334 334 335 335 337 338 339 339 340 340 340 337 331 327 326 325 325 325 325 323 323 323
348 346 345 342 342 340 339 338 337 335 335 335 334 333 332 332 331 331 331 331 331 331 332 332 333 334 334 335 336 337 338 338 337 330 326 324 321 322 321 320 319 319 318
346 347 345 344 342 340 339 338 337 336 335 334 333 333 332 331 330 330 329 327 327 328 329 330 330 330 332 333 333 333 334 335 333 329 325 323 322 320 320 318 318 318 318
347 346 347 344 342 340 339 338 337 335 336 334 332 332 332 330 330 329 328 327 325 324 325 326 327 329 330 331 332 331 331 331 329 327 326 325 324 321 320 319 316 315 314
347 347 347 345 343 341 339 338 336 336 335 333 331 331 330 330 329 329 328 327 325 325 324 323 322 322 325 328 330 330 329 328 326 326 326 325 325 324 322 319 316 315 315
349 348 348 346 344 341 341 338 336 336 335 333 328 330 329 329 329 328 328 327 326 325 322 321 316 315 321 322 324 326 327 326 325 325 324 324 324 323 321 318 318 320 317
347 346 346 345 344 342 340 338 336 335 333 331 327 328 327 326 328 327 326 325 325 322 320 319 318 316 312 313 313 314 317 320 322 322 322 322 322 322 322 321 321 318 316
339 338 338 339 344 343 341 339 336 334 332 330 327 325 325 323 326 326 325 324 322 321 319 318 320 319 318 316 316 314 310 309 313 314 311 311 311 314 319 319 317 316 316
331 330 331 333 338 344 342 339 336 333 332 330 327 324 322 322 321 326 324 321 319 317 315 317 319 320 321 319 319 317 315 313 311 310 310 308 304 305 311 313 313 317 318
327 329 331 333 338 341 341 338 335 333 330 327 326 323 320 319 320 322 325 322 320 317 314 314 314 316 318 319 319 316 314 313 314 314 311 308 306 306 304 308 310 317 317
325 327 329 332 335 338 339 336 334 332 328 324 322 321 317 317 319 318 320 322 319 317 314 313 312 311 311 311 309 308 308 309 309 311 313 308 307 307 308 306 306 305 305
324 324 326 328 330 332 333 333 331 329 325 321 320 317 316 316 315 316 316 315 315 314 308 306 306 305 306 307 307 306 307 308 308 307 306 305 305 305 306 308 309 308 304
321 321 322 324 325 326 327 327 326 323 322 319 317 316 315 313 312 311 311 311 309 307 307 307 306 306 306 307 307 307 307 306 306 305 305 306 306 306 305 304 304 309 308
319 319 320 321 321 320 320 320 320 319 319 318 317 316 314 313 310 310 310 310 309 306 306 307 308 309 309 308 308 307 306 306 305 304 304 303 303 305 304 304 303 304 309
317 317 317 318 317 317 317 315 315 315 316 316 316 316 315 313 311 311 311 310 309 306 307 307 307 310 307 307 307 307 306 305 304 304 303 303 302 302 302 302 303 303 303
318 317 316 316 316 315 315 316 314 313 313 314 313 314 313 313 312 310 310 308 307 305 304 304 307 306 305 305 305 305 305 304 303 304 303 302 301 301 301 301 302 302 302
319 317 316 315 315 315 314 313 311 310 311 311 311 311 310 310 309 306 304 303 302 307 308 308 307 305 305 305 305 304 304 304 304 304 303 302 302 302 303 302 302 302 302
320 319 318 317 316 315 314 312 310 308 307 306 307 306 306 305 303 302 301 300 306 307 306 308 308 306 305 305 305 304 304 303 303 303 303 302 302 302 303 302 301 302 301
323 321 319 318 318 317 316 314 313 311 308 307 306 305 303 302 302 301 303 304 305 306 307 306 306 306 305 305 305 304 304 303 302 303 303 303 303 302 302 302 302 301 301
310 309 310 310 311 312 314 313 313 312 310 309 309 307 305 304 306 306 306 307 307 306 306 305 306 305 305 305 304 304 304 303 303 303 303 302 302 303 303 303 302 302 301
310 311 312 312 312 311 311 311 310 310 310 310 309 309 307 305 305 305 305 305 307 307 307 306 305 305 305 304 304 303 302 303 303 303 302 302 302 302 303 302 302 302 302
312 312 313 312 314 315 315 315 314 314 313 311 309 309 307 306 305 305 304 304 305 305 307 306 305 305 304 303 303 303 303 303 303 302 302 302 302 301 301 302 301 301 300
314 314 315 314 315 315 314 314 314 311 311 313 311 308 306 305 304 304 307 308 308 307 307 306 305 304 304 304 304 304 304 304 304 303 303 302 301 301 301 301 300 300 299
315 315 314 313 311 310 310 310 309 309 308 312 309 309 308 308 308 309 309 309 308 308 307 306 305 305 305 305 305 305 306 306 306 306 305 303 302 302 300 299 300 300 299
314 313 312 312 312 312 312 311 310 309 308 307 307 307 306 305 305 305 305 305 304 304 303 302 301 301 300 299 298 298 302 302 302 302 303 304 305 303 301 301 303 299 300

GFSGL_925_thetae_033.txt.gz
Theta_e
347 346 344 342 341 339 339 337 335 336 335 335 335 334 334 336 336 336 336 336 336 336 337 339 339 340 341 341 341 341 339 337 336 332 332 332 332 331 330 330 329 329 327
347 346 345 343 340 339 337 336 335 335 334 334 333 332 332 332 333 333 334 333 334 333 333 334 335 336 338 338 339 339 340 339 336 331 328 327 326 326 325 325 323 323 322
347 346 345 342 341 338 337 336 335 334 334 333 332 331 330 330 330 329 330 329 330 331 331 331 332 333 334 334 336 337 337 338 335 331 326 324 321 322 322 321 320 320 321
347 347 345 343 341 338 338 337 335 335 334 333 332 331 330 329 328 327 326 327 328 329 329 328 329 331 332 332 332 333 334 334 332 329 325 323 321 320 320 318 318 318 317
347 346 345 343 341 338 338 337 336 335 334 332 331 331 330 329 328 327 325 324 324 323 323 324 326 329 330 331 330 330 331 330 329 326 324 323 322 319 319 319 316 315 315
348 346 345 344 341 339 338 337 335 336 333 332 330 330 329 329 328 328 326 325 325 324 321 317 323 325 327 329 329 328 328 328 327 326 325 325 323 323 321 319 316 316 316
347 346 345 346 342 340 338 337 336 334 333 330 329 329 328 328 328 327 327 325 324 321 318 315 319 319 320 323 326 326 325 325 325 326 325 324 324 323 322 319 317 319 317
347 347 346 345 342 341 339 336 336 334 333 330 327 327 327 328 327 326 325 325 322 319 319 318 314 312 312 313 316 319 321 321 322 322 322 321 322 322 321 320 319 318 316
343 341 340 343 343 341 339 337 335 333 331 328 326 325 325 326 327 325 324 323 321 319 318 319 319 317 315 316 312 311 314 315 314 313 310 308 308 316 319 319 318 317 315
339 335 334 334 337 340 340 338 335 332 330 327 324 322 322 322 323 325 323 320 319 316 316 318 319 320 318 318 317 312 310 309 310 309 308 305 304 307 316 316 313 316 317
333 331 330 333 335 339 341 339 335 333 329 326 325 322 320 319 320 324 324 320 318 316 313 313 314 316 318 320 318 315 314 314 313 310 309 306 306 305 305 307 307 313 316
328 328 330 333 335 338 340 336 334 331 328 324 321 319 318 317 319 321 323 320 318 316 314 312 310 311 310 307 307 306 308 309 308 309 311 307 306 307 307 307 307 305 308
325 327 328 330 332 336 337 335 332 328 325 321 320 318 317 318 318 316 319 317 316 313 307 305 305 306 306 307 305 306 307 309 309 310 311 309 305 306 307 306 308 308 304
321 323 325 327 328 330 330 330 329 325 322 320 319 317 315 313 311 313 314 314 311 306 307 306 305 305 306 307 307 307 306 305 305 305 305 305 305 305 305 305 304 307 308
320 321 322 323 323 324 324 322 323 322 322 321 319 317 315 312 310 310 310 309 308 306 306 308 309 309 309 308 308 307 306 305 304 304 303 303 303 304 304 303 303 303 305
319 320 321 321 320 320 320 318 318 318 318 318 317 317 316 313 311 312 311 310 307 306 307 307 309 307 307 306 306 307 306 304 304 303 303 302 302 302 301 301 301 302 302
318 318 317 318 317 317 316 317 315 314 314 315 315 314 313 313 312 310 309 309 307 305 305 307 307 306 306 305 305 305 305 304 303 303 303 302 301 301 301 301 301 301 302
317 316 316 316 315 315 313 312 312 314 313 312 312 312 311 311 309 307 305 304 302 306 307 307 306 306 305 305 304 304 304 303 303 303 303 302 302 302 302 302 301 301 301
317 316 315 315 314 313 312 309 307 307 308 307 307 308 308 307 305 304 302 301 305 305 306 307 307 306 305 305 304 304 304 303 302 302 302 302 302 302 301 302 302 301 301
319 318 317 316 315 314 313 311 309 308 307 306 305 303 303 302 301 301 301 302 305 305 306 306 306 306 306 305 305 304 304 303 303 302 302 302 302 302 302 302 302 302 301
322 321 320 318 318 317 316 314 313 311 310 308 308 306 304 304 305 304 304 305 306 306 306 306 306 305 305 305 304 304 303 303 303 303 302 302 302 302 302 302 303 302 301
313 312 312 313 312 314 315 314 313 312 311 310 309 308 307 305 303 305 305 305 304 303 305 306 306 304 304 304 303 303 302 302 303 303 302 302 302 302 301 301 302 302 301
309 309 310 311 311 310 310 311 311 312 312 311 310 309 309 308 306 305 304 304 304 305 305 306 306 304 303 302 302 303 303 303 303 303 303 303 302 302 302 301 301 301 301
310 311 312 312 314 313 313 313 312 312 312 312 311 308 307 306 305 304 305 307 308 306 304 303 303 303 303 303 303 303 303 303 304 304 304 304 303 301 300 300 300 300 299
314 313 313 314 313 313 311 309 308 310 311 310 308 306 306 306 308 308 307 306 306 305 304 303 303 302 302 300 299 298 298 301 301 301 301 301 302 303 303 302 301 299 298
314 313 312 310 310 310 310 309 309 309 309 309 309 308 307 307 306 305 305 305 304 303 302 301 300 298 297 296 294 292 291 292 291 290 290 293 296 298 298 298 298 298 299

GFSGL_925_thetae_036.txt.gz
Theta_e
346 345 342 342 340 339 337 335 335 335 334 333 332 333 334 334 334 334 334 335 335 335 336 338 338 339 340 341 341 341 339 337 335 331 331 329 328 328 327 327 327 327 325
336 345 342 342 340 338 336 335 334 334 333 332 331 331 331 331 332 332 332 332 332 332 333 334 335 336 337 338 339 339 340 337 336 330 327 325 324 325 325 325 323 323 321
345 345 344 342 340 338 336 335 334 333 332 331 330 330 329 327 328 329 329 330 330 329 329 330 331 332 333 334 335 336 337 336 335 331 326 324 321 322 322 321 320 320 320
346 345 345 342 340 338 336 335 334 334 332 331 330 330 328 327 325 326 327 327 326 327 328 329 330 331 330 331 332 331 332 332 331 330 325 323 321 320 321 319 318 317 315
347 346 345 343 341 338 337 336 335 334 332 331 330 329 329 328 326 324 324 324 323 321 323 326 328 329 329 329 329 330 331 330 328 326 324 322 321 320 320 319 316 315 314
344 347 345 342 341 339 338 336 335 334 332 330 330 328 328 328 327 326 325 324 319 315 320 321 322 325 328 327 327 327 327 328 327 326 325 324 322 322 321 319 317 317 317
344 346 345 344 342 340 338 336 335 333 331 329 329 328 328 328 327 326 325 323 321 317 314 314 314 317 322 325 325 324 324 325 325 326 325 324 324 323 322 319 317 319 317
343 346 345 344 343 340 338 336 335 333 331 328 327 326 327 327 325 325 324 323 320 318 318 316 315 314 312 315 319 320 320 321 321 321 320 318 320 321 321 320 319 319 316
342 345 345 343 342 340 339 337 335 332 330 326 325 324 326 326 324 323 323 321 319 318 319 319 317 316 315 311 311 315 315 313 310 307 305 306 309 317 319 318 318 317 316
336 339 339 340 341 340 340 338 335 332 329 325 323 322 322 323 325 324 321 320 317 315 317 318 319 319 317 318 314 309 309 310 309 307 306 306 305 305 308 309 311 317 317
331 331 331 332 333 337 338 338 335 331 330 323 322 319 320 320 321 324 322 318 317 314 313 313 313 316 319 318 312 311 313 313 311 309 307 306 306 306 305 305 304 314 314
329 329 329 332 334 335 335 336 334 331 326 323 320 318 317 318 319 322 323 320 316 315 313 310 310 309 307 307 307 307 308 308 308 310 310 307 305 307 307 308 307 304 306
327 326 328 331 334 334 336 334 331 329 326 321 320 319 317 317 319 320 321 317 316 313 307 305 306 306 307 306 306 306 306 308 309 309 310 309 305 305 306 306 306 308 305
324 325 325 328 329 332 332 332 331 327 323 320 319 318 315 314 314 314 315 314 310 308 307 306 304 306 307 307 307 306 306 305 305 305 304 304 305 305 305 305 304 303 305
323 322 322 324 326 326 326 325 326 324 323 321 320 319 316 311 310 311 311 311 308 306 306 307 308 308 308 308 307 307 306 305 304 303 303 303 302 302 302 302 302 302 303
320 319 320 321 321 322 323 321 321 320 321 319 318 317 315 312 311 311 311 309 306 307 308 308 309 307 306 306 305 305 306 304 304 303 303 302 301 301 301 301 301 301 302
319 319 319 318 319 319 318 318 316 315 316 316 316 315 314 312 312 311 311 310 306 306 306 308 307 306 306 305 304 304 304 303 303 303 303 302 301 301 301 301 301 300 301
318 318 317 317 317 316 315 315 315 315 313 312 312 313 313 312 310 308 307 307 303 304 307 306 306 306 305 305 304 304 304 303 302 302 302 302 302 302 301 301 301 301 301
317 316 314 314 313 310 309 309 310 309 308 308 309 310 310 309 307 305 303 302 306 306 306 307 306 306 305 305 304 304 304 303 303 302 302 302 302 302 302 301 301 301 301
316 315 314 313 312 311 309 308 306 306 306 305 304 304 304 303 302 301 301 302 304 304 305 305 305 305 306 305 304 304 304 303 303 303 302 302 302 301 301 301 302 302 302
318 317 316 315 315 314 312 311 309 309 308 307 306 304 303 303 302 302 302 303 303 305 305 305 305 305 305 305 304 304 303 302 302 302 302 302 302 302 301 301 301 301 302
320 320 319 318 317 316 315 314 314 312 311 310 309 307 306 304 303 304 305 305 304 303 303 303 305 305 304 304 304 303 303 302 302 303 302 302 302 302 301 301 301 301 301
315 316 317 317 316 313 313 313 314 313 312 311 311 310 309 307 306 305 304 304 304 305 305 304 304 303 303 302 302 302 302 302 302 303 303 303 303 302 301 300 300 300 300
309 309 310 310 310 310 310 310 310 312 312 311 310 309 308 308 307 306 305 305 305 305 304 303 302 301 301 301 301 301 300 300 300 300 300 300 301 301 301 301 300 300 300
309 309 310 311 312 312 314 313 312 310 311 310 309 307 306 306 305 306 306 306 304 303 302 302 301 300 299 298 297 295 293 292 292 291 290 290 292 294 296 296 296 297 298
314 312 312 312 314 313 312 309 308 309 309 309 307 307 307 307 307 305 304 304 304 303 302 300 299 297 296 294 291 288 286 286 286 286 286 286 285 285 285 288 291 294 296

GFSGL_925_thetae_039.txt.gz
Theta_e
345 344 343 342 341 338 337 337 336 336 335 334 334 334 334 334 334 335 334 336 336 337 338 336 337 338 339 341 343 343 339 337 335 330 328 326 326 327 326 326 325 324 325
343 344 344 342 341 339 337 336 336 335 334 333 333 332 331 331 332 333 332 332 334 334 335 332 333 334 336 337 339 339 340 340 336 331 325 323 321 323 323 323 322 321 321
345 345 344 342 341 339 337 336 335 334 333 332 332 331 329 329 330 330 330 330 330 330 331 332 331 334 333 334 334 335 335 336 335 331 326 323 320 321 320 320 319 319 319
345 346 345 343 342 339 338 337 336 334 333 332 332 331 329 327 327 326 326 326 326 327 328 328 329 330 333 334 332 332 332 331 330 328 324 322 321 320 320 318 317 315 315
347 347 346 345 342 340 339 338 336 334 332 331 330 330 330 328 326 327 326 321 323 324 324 326 326 327 328 329 332 333 333 331 328 326 324 322 321 320 320 319 317 316 315
348 348 347 345 342 340 340 338 336 334 332 330 329 330 329 328 326 325 324 319 320 321 320 320 324 325 326 326 326 326 328 331 331 329 327 326 324 322 320 319 317 318 319
344 348 347 345 343 340 339 337 337 334 331 329 328 329 330 327 326 325 323 321 319 316 316 316 316 319 322 322 323 324 324 325 327 328 327 326 326 325 323 319 319 319 319
342 345 347 343 344 341 336 335 334 332 330 328 327 328 328 325 325 324 323 321 320 319 318 317 317 314 314 319 319 319 318 317 317 318 319 320 322 323 322 322 321 319 317
337 338 341 342 344 339 337 335 333 331 329 326 325 326 326 324 324 323 322 320 319 319 319 318 318 318 315 310 316 317 315 311 306 306 306 306 307 313 317 320 320 321 321
336 338 339 339 339 339 338 336 333 332 328 325 324 323 324 325 323 322 320 319 318 317 317 319 319 318 319 317 316 315 314 314 313 311 311 308 306 306 305 307 311 314 316
337 337 335 334 338 339 339 337 333 330 325 323 322 321 320 320 323 324 320 317 317 316 315 313 314 318 317 312 310 313 316 316 313 313 311 310 310 309 309 310 307 311 314
332 331 330 331 331 333 336 336 333 330 325 320 320 319 318 318 320 323 320 317 319 315 312 311 311 307 307 306 306 307 308 309 311 313 313 311 308 308 309 309 309 308 307
327 326 328 330 332 334 335 333 331 328 325 320 320 319 317 318 319 321 322 320 317 313 307 307 307 306 306 307 306 306 308 309 310 310 310 308 307 307 307 309 310 308 308
325 324 325 327 329 331 331 330 328 324 324 321 321 319 316 315 314 314 314 313 311 308 307 304 306 307 308 308 309 308 308 307 307 307 307 307 306 306 306 306 306 306 306
323 323 323 324 326 326 327 326 327 326 325 324 321 319 315 312 313 314 312 311 309 308 306 306 308 311 312 311 310 309 308 308 307 307 306 306 305 305 304 304 304 304 304
321 321 320 320 321 321 322 321 320 322 322 321 321 319 316 313 312 311 311 310 307 307 309 311 312 310 308 307 307 307 307 306 305 305 305 305 305 304 304 304 304 304 304
320 318 318 319 319 318 317 318 315 315 317 317 317 316 314 313 312 312 311 308 306 307 310 312 310 309 308 307 307 306 306 306 304 305 305 305 304 304 304 304 304 304 304
320 319 318 318 320 320 321 321 320 319 318 314 313 313 312 312 312 310 309 308 307 306 310 311 309 309 308 308 307 307 306 306 306 305 305 304 304 304 304 304 304 304 304
320 319 319 319 317 315 316 317 317 316 315 313 310 310 312 310 309 306 306 307 309 309 310 310 310 309 309 308 308 307 306 306 305 306 305 305 304 304 304 304 304 303 303
318 316 315 313 311 310 310 309 309 308 308 309 310 309 307 306 306 306 305 305 307 308 307 308 308 309 309 309 308 307 307 306 306 306 306 305 305 305 304 304 304 304 304
317 315 314 314 313 312 311 310 310 310 310 309 308 306 305 307 305 304 305 305 306 306 307 307 307 308 308 308 307 307 307 306 306 306 306 306 306 305 305 305 305 305 305
318 317 316 316 315 315 314 313 313 312 312 311 310 307 304 305 307 307 306 307 307 306 305 306 306 307 306 306 306 306 305 305 305 304 303 304 305 305 305 305 305 305 305
320 319 319 318 318 317 317 316 316 316 315 315 314 312 308 307 307 306 306 306 306 305 304 304 304 303 302 302 302 301 302 302 301 301 301 302 304 306 305 306 306 306 306
320 319 319 319 318 316 314 314 315 313 314 314 312 311 310 309 309 306 305 305 304 303 303 302 301 300 300 298 298 296 298 299 297 296 296 298 299 300 300 301 301 302 303
310 312 313 312 311 312 312 313 313 313 312 311 311 311 310 308 307 306 305 304 303 301 300 298 297 298 298 298 297 297 296 295 291 289 291 291 291 291 291 292 293 294 296
311 311 311 311 313 314 314 315 312 312 311 310 309 308 307 305 305 303 303 302 300 299 298 296 297 298 297 294 294 292 288 287 286 286 287 289 289 289 289 290 290 290 291

GFSGL_925_thetae_042.txt.gz
Theta_e
346 348 347 345 343 341 340 340 340 339 338 339 339 339 339 339 339 339 339 339 338 339 340 341 341 342 343 344 345 345 344 343 338 327 326 325 325 326 325 324 323 322 323
342 347 346 345 342 341 339 339 339 338 338 337 337 337 337 337 337 337 337 337 336 336 337 338 339 340 341 341 342 342 344 343 337 327 324 322 322 322 322 322 320 321 320
343 346 346 345 343 342 340 339 338 337 336 336 336 335 335 335 334 334 334 335 335 335 335 335 336 337 337 337 338 338 338 338 337 328 323 322 320 320 319 320 320 320 320
341 346 346 346 345 343 341 340 338 337 336 336 335 333 333 332 332 332 331 332 332 333 334 333 333 333 335 336 336 336 337 334 330 327 323 322 321 320 320 318 317 315 315
342 344 347 346 346 344 342 341 339 337 336 335 334 334 332 330 331 331 326 330 330 330 330 329 328 327 327 330 333 334 334 334 330 326 324 322 321 321 321 320 318 316 316
343 344 346 348 346 345 343 341 339 338 336 335 334 333 332 328 325 324 325 325 325 324 325 326 327 327 325 325 326 328 332 334 333 331 329 328 326 323 321 323 320 321 324
344 345 347 348 347 346 344 342 340 339 336 334 334 334 333 328 325 324 325 324 323 324 323 322 323 323 325 326 325 325 325 326 329 329 329 329 328 327 327 325 324 323 323
345 345 349 348 347 345 345 343 341 338 334 332 332 334 332 326 324 323 325 326 325 325 324 324 321 318 319 323 322 318 314 315 318 319 320 320 321 323 324 324 324 324 322
344 345 346 348 347 345 342 343 341 337 335 332 332 333 330 326 323 323 326 325 325 324 324 323 323 319 314 318 320 318 314 310 307 306 306 305 304 304 306 316 321 319 323
342 344 341 343 346 343 343 343 339 337 335 332 329 329 328 326 323 322 325 325 323 323 322 321 320 320 319 319 321 319 318 317 316 316 315 313 313 311 309 312 311 313 314
340 339 338 340 340 341 341 341 337 335 333 329 325 324 325 326 324 322 320 320 321 321 320 319 318 318 313 310 314 317 319 319 315 316 315 313 312 311 311 311 311 310 311
336 338 337 337 337 340 339 338 335 332 331 328 327 325 323 323 323 323 320 320 318 316 315 314 310 308 307 306 308 308 309 312 313 315 314 313 310 310 309 310 312 310 310
332 332 331 331 332 335 337 335 332 329 329 325 325 325 323 322 321 322 320 320 318 313 311 311 307 306 308 307 306 309 310 311 311 311 311 310 309 310 310 310 310 311 313
331 330 328 330 332 332 333 331 330 328 326 323 326 326 324 321 320 320 318 316 313 309 306 307 307 311 311 310 311 310 309 309 309 309 309 309 308 308 307 307 307 307 307
328 328 327 325 325 326 327 326 326 327 328 326 326 323 324 324 320 317 316 315 314 311 308 308 310 314 315 313 311 310 309 309 309 308 308 308 307 307 307 307 307 306 306
328 328 328 327 321 319 320 322 324 324 324 324 323 322 319 318 316 315 314 313 311 308 311 314 316 314 312 310 309 309 309 308 308 308 308 308 307 307 306 307 307 307 307
326 326 326 326 324 320 319 318 318 318 320 321 321 319 315 314 313 313 311 310 308 308 314 316 315 312 310 309 309 309 309 308 309 308 308 308 307 307 307 307 307 307 307
324 323 324 324 325 325 325 324 322 323 323 318 315 315 314 313 313 313 312 308 308 309 315 316 313 310 310 311 310 310 310 309 309 308 308 308 308 307 307 307 307 307 306
325 324 324 324 325 326 326 326 326 325 324 321 315 312 312 312 311 310 310 312 315 314 314 312 311 310 311 310 311 310 310 309 308 308 308 308 308 308 307 307 307 306 305
326 324 325 325 320 319 320 319 318 316 314 313 313 313 313 310 310 310 310 311 312 311 311 311 310 311 311 311 311 310 310 310 310 309 309 309 308 308 308 308 307 307 307
325 320 317 315 313 312 312 311 311 312 313 314 313 311 309 310 310 310 309 309 310 310 309 310 310 310 310 310 310 310 310 309 309 309 309 309 308 308 308 308 307 307 307
322 317 315 315 313 313 313 314 314 315 314 314 313 309 306 309 311 310 310 310 310 310 310 310 310 310 310 310 310 310 309 309 309 309 308 308 307 308 308 308 308 307 307
322 319 316 316 315 314 314 315 315 316 315 315 315 313 307 309 312 312 312 311 311 310 309 309 309 309 308 307 307 307 307 307 306 306 306 306 307 307 307 306 305 305 304
324 320 318 317 317 316 316 317 317 317 318 318 318 317 316 312 312 312 311 309 308 308 308 308 308 308 307 305 303 302 300 300 301 301 301 302 302 301 300 298 297 297 298
323 322 320 318 318 317 317 316 316 316 317 317 316 316 316 316 315 314 311 308 305 306 306 306 305 304 303 302 300 298 301 300 298 294 294 295 294 294 294 294 294 295 295
322 319 317 315 316 315 313 315 315 317 317 316 314 312 312 312 310 308 306 305 307 307 306 304 303 302 300 299 296 298 297 292 288 288 289 292 293 293 293 293 293 294 294

GFSGL_925_thetae_045.txt.gz
Theta_e
350 348 347 346 345 342 342 342 341 341 341 342 341 341 342 341 341 341 341 339 338 339 340 341 342 344 344 346 347 347 346 344 335 327 326 326 325 326 326 325 324 323 325
347 348 347 346 344 342 341 341 341 340 341 340 340 340 339 339 339 338 338 338 337 336 338 339 340 340 340 342 343 344 345 344 337 326 323 322 322 322 322 322 320 320 320
343 347 346 345 345 343 342 341 340 339 339 339 338 338 338 337 337 337 337 337 336 335 336 336 336 337 337 338 339 339 340 339 335 328 322 321 320 321 321 321 321 321 321
342 345 346 346 346 344 343 342 341 340 339 339 338 337 336 336 335 334 335 335 335 334 333 332 331 333 336 337 336 338 336 332 329 325 323 322 321 320 321 320 318 318 317
346 346 347 348 347 344 344 343 341 340 339 338 338 336 335 334 332 331 334 333 333 333 332 329 326 325 327 333 336 337 336 331 326 324 323 322 321 321 322 322 321 321 318
342 345 348 348 348 347 345 344 342 340 339 339 338 336 334 328 327 327 330 329 329 329 329 329 329 328 325 325 330 332 335 336 333 330 328 328 328 327 325 325 325 324 324
344 345 348 348 349 346 346 344 342 340 339 338 337 337 335 327 324 325 327 328 328 328 327 327 326 327 329 327 325 324 326 328 329 330 330 330 329 327 327 327 326 327 326
345 345 348 349 349 347 346 345 343 341 339 337 337 336 334 326 324 325 329 330 329 329 328 326 322 323 323 324 318 314 315 318 319 320 320 319 322 323 325 325 326 325 324
344 346 347 349 349 349 346 345 343 340 339 336 336 335 333 327 323 326 327 330 329 328 328 326 325 319 320 322 321 317 313 310 307 307 307 306 306 304 309 316 323 316 321
338 344 346 347 349 350 346 346 343 341 339 336 335 335 333 330 323 326 327 329 328 327 326 322 321 320 319 322 323 322 321 320 319 319 317 316 316 313 312 312 313 313 315
341 344 345 344 345 346 346 345 345 342 337 335 334 333 331 331 325 323 324 324 323 324 325 323 319 315 312 314 316 320 323 321 315 319 318 316 314 314 313 313 313 312 312
341 341 340 341 342 342 345 344 343 338 334 334 332 331 330 328 329 324 321 323 322 321 319 318 313 308 307 308 309 307 308 312 315 316 316 315 312 312 311 313 314 313 311
337 337 337 336 337 339 342 341 338 334 332 333 333 332 329 328 325 322 322 320 321 318 317 315 307 307 307 308 308 310 311 313 313 313 313 312 311 311 311 313 310 313 314
335 333 331 332 333 333 337 336 333 331 331 333 331 328 329 328 326 323 321 320 317 314 312 308 307 312 312 313 311 312 311 310 311 311 311 311 310 310 310 309 309 308 308
332 332 331 329 328 329 330 329 330 330 330 329 330 329 330 329 327 326 324 321 318 317 312 308 310 313 316 316 313 312 311 312 311 310 310 310 310 309 309 309 309 309 309
331 331 331 330 323 323 323 324 327 329 329 330 330 329 325 324 324 321 319 318 317 314 311 312 316 318 316 313 312 312 311 310 311 310 310 310 310 310 308 309 309 309 309
330 330 331 329 327 322 322 320 321 322 324 325 325 324 322 322 319 318 317 316 314 310 313 318 319 316 314 312 311 311 312 310 312 310 310 310 309 309 309 309 309 309 309
329 328 329 329 328 326 324 325 327 323 320 319 319 319 316 316 315 314 313 311 310 309 314 318 318 315 312 312 312 312 312 312 311 310 310 310 310 309 309 309 309 309 308
328 328 327 328 328 328 328 327 325 324 326 324 318 314 313 314 313 313 313 313 316 315 316 317 316 313 312 313 313 312 312 311 309 309 310 310 310 309 309 309 309 308 307
328 327 327 328 328 327 328 328 329 328 327 325 320 319 314 311 313 313 312 314 317 317 316 315 313 312 313 313 313 312 312 312 312 312 311 310 310 310 309 309 310 309 308
328 327 326 327 329 326 325 325 324 323 320 317 316 316 314 314 313 314 314 314 313 314 313 313 313 313 313 313 312 312 312 311 311 310 310 310 310 309 308 308 307 308 309
327 326 324 322 320 317 316 315 314 314 315 316 316 313 311 311 314 314 313 313 313 313 312 312 312 312 312 312 312 312 312 311 310 310 310 310 309 309 308 308 308 308 307
326 324 323 318 318 316 314 316 316 316 317 317 316 313 310 312 315 314 314 313 313 313 313 312 312 312 312 312 312 311 310 310 310 310 309 309 309 308 307 306 305 304 303
326 324 323 317 317 316 315 316 317 317 318 318 317 315 313 313 314 315 315 315 314 314 312 312 310 310 311 310 310 309 307 305 306 306 306 305 305 304 302 300 299 298 298
326 324 324 319 317 317 316 316 318 318 318 319 318 318 318 318 317 316 315 314 313 312 310 309 310 311 311 310 308 304 302 304 304 302 300 300 299 297 297 297 297 297 297
325 326 324 320 318 319 318 318 317 316 317 317 318 318 318 317 316 315 315 313 311 309 309 310 310 309 308 306 305 302 302 301 297 293 290 293 295 296 296 297 296 295 296

GFSGL_925_thetae_048.txt.gz
Theta_e
347 347 348 347 346 343 343 343 342 341 341 340 341 341 342 341 341 342 339 338 338 338 339 340 340 342 343 343 343 342 342 342 330 326 327 327 327 328 327 326 325 325 325
346 345 346 346 344 343 343 342 341 341 340 340 340 340 340 339 339 339 339 336 336 337 336 337 337 338 339 339 342 342 341 339 330 325 324 323 323 324 324 324 324 323 324
344 345 345 346 344 343 342 342 341 341 340 340 339 339 338 338 338 338 338 336 335 334 334 334 337 339 336 339 338 338 337 334 330 325 322 322 321 323 323 323 323 323 322
344 347 346 347 346 344 343 342 342 341 340 339 338 337 337 337 335 336 336 336 334 331 327 326 329 333 336 338 338 334 332 329 326 324 322 322 321 321 322 321 320 319 318
341 346 347 347 347 345 344 343 342 341 340 339 338 337 334 332 332 334 334 333 333 332 329 327 324 327 331 334 337 334 330 327 325 324 323 322 322 322 322 323 322 321 320
343 345 347 348 348 346 345 344 343 341 340 339 339 337 331 327 328 330 331 330 330 330 330 329 330 328 325 328 332 334 334 329 328 327 326 326 325 326 325 324 325 324 324
342 345 347 348 348 348 346 343 343 342 340 339 337 337 333 325 326 327 330 330 330 329 328 328 329 327 327 324 324 329 328 329 330 330 330 329 328 327 327 327 326 326 326
345 345 347 347 347 346 348 344 343 342 340 339 338 336 334 325 325 329 331 330 330 330 327 323 324 323 323 316 315 319 318 319 319 323 322 323 323 324 325 325 326 326 325
347 345 344 344 345 345 347 345 344 343 340 338 338 335 334 325 324 329 331 331 330 330 328 326 321 321 322 321 318 313 310 308 311 311 310 308 310 307 310 315 320 322 325
342 337 340 342 344 344 346 346 344 342 339 338 337 335 334 329 324 327 328 330 330 328 325 324 322 319 322 324 324 322 317 313 317 318 317 315 315 313 312 310 314 314 315
337 334 333 335 341 341 340 342 344 343 341 338 337 335 333 332 324 325 326 328 327 326 327 323 319 316 318 320 319 323 323 320 316 319 319 318 316 315 313 313 310 311 311
343 335 338 340 340 339 340 339 342 342 340 338 336 334 333 332 331 324 324 325 324 325 322 320 316 309 307 309 308 307 308 312 317 318 319 313 312 312 311 311 311 311 310
341 340 341 340 339 339 341 344 343 341 338 336 334 333 333 330 329 327 323 322 322 322 320 318 312 307 308 308 309 311 312 313 315 315 313 312 311 311 310 312 310 312 312
338 336 335 334 334 334 335 339 340 339 335 335 334 334 332 331 327 323 322 321 321 319 318 315 307 310 312 315 312 312 311 310 312 311 311 311 310 310 310 309 310 309 309
334 333 332 332 332 331 330 333 334 334 334 333 333 333 331 330 329 326 323 322 320 317 314 310 307 311 313 313 314 314 313 312 312 311 311 311 310 310 309 309 309 309 309
333 333 333 331 328 327 327 327 329 330 330 331 331 331 330 329 328 328 326 324 321 317 314 311 309 312 316 318 316 312 311 311 311 311 311 310 310 310 308 310 309 309 310
331 333 332 332 327 324 323 322 323 325 328 329 328 329 327 326 324 324 323 320 318 317 314 314 315 317 318 313 312 312 313 311 310 311 310 310 310 310 309 310 309 310 308
329 330 329 331 330 328 326 323 323 323 323 325 327 325 323 322 321 321 320 318 315 314 313 315 319 319 315 312 312 312 313 312 312 311 311 311 310 310 310 310 309 310 308
332 329 330 329 329 329 327 326 327 326 326 321 321 320 319 317 316 316 314 314 316 315 313 313 316 316 313 313 313 313 313 312 311 310 310 311 310 310 310 310 310 310 309
332 330 328 328 327 328 328 329 328 327 326 323 320 319 313 312 312 312 313 314 315 318 316 316 318 314 313 313 314 313 313 312 311 311 312 312 310 310 310 309 309 308 308
331 330 329 328 327 329 329 328 330 330 330 329 325 321 317 314 317 317 317 316 316 318 319 317 315 313 313 314 314 313 313 313 313 313 312 311 311 310 310 309 308 308 308
331 329 328 327 327 327 328 327 328 327 328 326 320 319 317 315 316 315 316 316 317 316 315 314 313 314 314 314 314 313 313 313 311 311 311 311 311 310 310 309 308 308 307
330 329 327 326 324 321 319 316 316 316 316 316 317 315 314 313 314 314 315 315 314 314 314 313 313 314 313 313 313 313 313 312 312 311 311 310 310 309 308 307 306 305 304
329 327 327 325 323 318 317 316 315 318 317 317 317 315 313 312 313 315 315 315 314 314 314 314 313 313 312 312 312 311 310 310 309 308 308 308 307 306 305 303 301 299 299
328 328 327 326 323 319 317 315 316 317 318 319 319 316 317 315 314 315 316 316 315 315 314 313 313 312 311 311 311 310 309 307 305 305 305 303 301 301 299 298 298 298 298
328 327 327 326 324 320 317 316 316 317 317 317 317 318 319 319 318 317 317 315 314 314 313 311 310 311 312 312 310 308 305 303 304 303 301 295 294 296 297 297 298 297 296

GFSGL_925_thetae_051.txt.gz
Theta_e
346 345 345 345 343 344 342 341 341 340 339 339 339 341 340 340 341 338 337 336 337 337 337 338 339 341 342 343 342 342 341 340 329 327 328 328 328 328 327 326 325 325 325
344 344 347 345 342 343 342 341 341 340 339 339 338 339 338 338 339 335 335 335 335 335 336 337 337 338 338 340 342 342 339 337 329 325 324 324 324 325 325 325 324 323 323
344 345 347 344 343 343 341 340 340 340 339 339 339 337 337 337 338 337 334 333 331 331 335 336 336 337 337 337 338 336 334 331 328 325 322 323 322 324 324 323 322 322 322
343 343 346 344 344 342 342 341 341 340 339 338 337 337 335 335 335 335 335 330 324 324 328 332 335 337 339 334 334 333 331 329 327 325 323 322 323 322 322 322 321 321 319
343 345 345 346 344 343 342 342 341 340 339 338 337 337 334 333 335 333 334 332 330 328 325 325 330 332 335 336 332 331 329 327 325 323 323 323 322 322 322 322 321 320 319
339 342 346 346 346 344 343 343 341 340 339 338 338 331 329 330 331 331 331 330 330 329 329 328 325 325 331 334 333 330 330 329 327 325 324 324 324 324 324 324 323 323 322
342 343 347 345 346 345 344 343 342 340 339 337 336 334 331 327 328 329 329 329 329 328 330 327 327 325 324 328 330 332 331 330 328 328 327 327 327 326 325 325 325 325 326
341 343 345 344 342 341 344 343 343 341 339 338 336 335 330 325 328 330 330 330 329 326 324 325 324 321 314 322 325 324 323 324 327 327 327 325 325 324 325 323 325 326 326
348 344 343 342 340 340 341 343 342 341 339 339 337 335 333 324 327 331 331 330 329 328 325 321 322 322 319 312 311 309 309 311 310 309 309 310 308 308 314 316 314 314 323
345 342 340 337 336 337 338 336 334 342 340 338 337 335 334 326 325 329 330 331 329 327 326 325 320 321 321 321 320 318 316 318 318 315 313 313 313 313 311 309 312 314 319
339 338 335 334 333 334 337 338 333 340 340 338 337 335 334 332 324 326 327 329 329 327 324 321 319 319 322 322 323 323 321 320 319 319 319 317 314 313 312 309 308 309 311
341 337 333 334 339 340 339 337 333 336 340 338 337 335 334 333 329 324 326 327 326 326 326 323 318 313 311 310 308 309 320 316 317 316 316 320 318 315 312 311 311 311 310
341 341 340 340 339 339 340 339 337 336 340 339 336 334 334 333 332 328 323 324 324 324 322 321 316 308 308 307 311 311 312 312 315 315 312 312 311 310 310 309 309 310 311
338 337 336 336 335 334 334 338 341 341 340 338 336 334 333 333 330 329 326 322 322 322 320 318 313 308 311 312 310 311 311 310 311 311 311 310 311 310 311 309 309 309 309
334 334 333 333 331 330 329 331 335 336 338 338 336 334 334 331 330 329 326 323 322 321 318 316 308 309 312 314 313 312 313 311 311 310 311 310 310 310 309 309 309 309 309
333 333 332 332 331 328 326 326 328 330 331 334 334 334 333 331 331 329 327 324 323 319 315 312 308 309 311 314 314 314 313 311 311 311 310 310 310 310 309 309 310 309 310
330 330 331 331 332 329 326 325 324 324 327 328 330 331 331 331 330 328 327 325 323 320 315 315 314 309 309 313 315 317 311 311 311 310 311 310 310 310 309 310 310 309 308
330 329 329 328 330 329 328 326 324 324 324 325 327 326 326 324 324 325 324 323 318 316 315 316 313 313 315 316 315 315 311 311 310 311 310 310 310 310 309 309 309 310 309
332 331 329 329 330 329 328 327 326 325 325 325 325 325 325 322 320 320 320 320 318 317 317 317 315 315 316 315 312 312 312 311 311 311 311 311 310 310 310 310 309 308 308
333 331 331 330 328 328 328 328 327 326 326 324 323 323 320 316 316 317 317 317 316 316 317 318 318 315 315 312 313 313 312 312 311 311 310 309 310 311 310 309 308 308 308
333 331 330 330 329 328 327 328 328 328 327 326 325 325 324 323 317 316 315 315 315 316 316 317 316 316 314 312 313 313 313 313 312 311 311 311 312 310 309 309 309 308 307
332 331 331 329 329 328 327 327 327 328 329 328 325 323 322 319 317 317 317 317 318 319 318 317 318 317 313 312 313 313 313 313 313 313 313 312 311 310 310 310 309 308 307
332 331 330 329 328 327 324 321 318 319 321 327 328 326 321 319 316 317 317 316 316 317 316 315 315 314 313 313 314 314 313 313 313 311 311 311 310 310 309 308 307 306 305
331 330 329 328 327 326 322 317 317 318 318 317 319 321 320 318 314 314 315 316 316 315 314 314 313 313 313 313 314 314 313 312 311 311 311 310 309 308 307 306 304 301 299
328 329 328 328 327 326 322 318 316 316 317 318 316 315 315 314 313 315 316 316 316 316 315 314 313 313 312 312 312 312 312 311 310 309 309 307 306 305 304 302 299 299 298
324 327 327 327 326 325 323 318 316 316 316 316 318 317 317 318 317 316 317 315 314 313 312 313 314 314 312 311 311 311 310 309 306 305 305 304 303 299 296 296 297 297 297

GFSGL_925_thetae_054.txt.gz
Theta_e
347 343 345 343 343 342 340 339 339 339 339 340 340 340 340 339 337 336 336 336 337 337 338 339 341 342 342 343 343 342 341 338 329 327 328 328 328 327 326 325 325 325 323
345 344 343 343 344 342 341 340 339 338 338 337 338 338 339 336 334 335 335 335 335 336 337 337 338 339 341 341 341 341 340 336 330 326 325 325 325 325 325 324 323 322 321
344 344 345 343 343 342 340 340 340 339 339 339 338 337 338 336 334 333 332 331 334 335 336 336 337 337 337 337 338 338 335 331 328 326 323 323 323 323 323 322 321 320 318
345 343 346 343 343 342 341 340 340 339 338 337 336 336 336 337 335 331 324 326 330 332 334 336 337 334 334 335 334 333 331 329 329 327 324 323 323 322 322 322 321 320 319
344 343 346 343 342 342 341 340 340 339 338 337 336 335 334 334 335 332 327 325 324 326 330 332 334 336 332 332 332 330 330 326 325 324 323 323 322 322 322 321 320 319 318
342 343 344 345 343 342 341 341 340 339 338 336 336 335 332 334 333 333 331 329 328 326 324 326 330 335 334 330 330 330 330 330 327 325 324 323 323 324 324 322 321 321 321
342 343 343 344 344 343 342 342 341 340 338 338 334 330 329 331 331 330 330 330 330 329 327 326 324 327 331 332 330 328 328 328 328 328 326 324 324 324 324 323 323 323 325
342 341 345 346 344 342 341 341 341 339 339 338 332 331 328 328 329 329 328 328 327 329 327 325 321 322 326 328 328 328 329 329 329 328 327 327 326 326 326 326 325 325 325
343 342 343 343 342 340 339 337 334 335 339 335 335 333 326 326 330 330 329 328 326 323 323 323 321 315 319 320 321 311 313 309 311 316 310 307 308 314 318 320 320 322 322
344 343 342 342 341 339 338 338 332 335 333 337 334 334 331 325 329 330 330 329 328 327 321 321 321 321 318 313 312 314 316 313 310 311 312 312 312 310 308 312 313 318 318
342 340 339 338 336 334 336 336 335 333 333 334 337 333 332 328 326 329 329 330 329 326 325 323 319 321 322 322 320 320 319 318 317 315 314 313 313 312 309 309 308 316 318
338 337 333 335 335 338 339 338 334 333 336 337 337 336 334 331 324 327 327 328 329 328 324 322 319 319 320 318 318 323 321 318 317 319 318 319 315 314 311 310 311 310 310
340 339 339 339 338 339 339 339 337 334 336 338 337 337 335 333 330 324 325 328 329 327 325 326 320 313 310 309 307 308 313 312 313 313 314 316 315 312 311 310 309 310 311
338 337 336 335 334 334 334 335 337 339 337 337 337 336 335 334 332 329 324 324 324 324 324 322 318 310 308 307 310 310 310 311 313 314 313 311 311 310 310 309 309 309 309
334 334 333 332 331 330 330 329 331 333 334 337 337 335 333 331 332 332 330 325 323 323 321 318 314 308 308 311 311 310 312 310 310 310 310 310 311 310 309 308 309 309 309
332 332 333 332 331 330 328 327 327 329 331 332 334 333 334 333 333 332 329 328 324 321 319 316 314 308 308 312 313 312 313 312 310 310 310 310 310 309 308 308 309 308 309
329 330 330 330 330 331 328 325 324 325 328 329 330 330 330 333 333 331 330 326 322 320 319 318 316 311 309 311 313 314 314 312 310 310 310 310 309 309 308 309 309 309 309
330 329 328 328 328 328 328 327 326 324 325 326 327 327 328 330 330 330 329 323 320 318 318 318 316 315 312 309 310 313 315 314 311 311 310 310 309 309 309 309 309 309 309
332 331 330 329 328 328 329 328 326 326 325 325 325 325 324 324 325 324 324 322 322 321 320 319 318 316 314 312 315 316 316 316 310 310 310 310 310 310 309 309 309 308 308
333 332 331 331 330 329 327 328 327 326 326 326 325 324 324 321 319 321 322 323 320 319 319 319 318 318 317 314 315 316 314 314 311 310 310 310 310 310 310 309 308 308 308
333 333 332 330 330 329 329 327 327 327 327 327 327 327 326 325 324 323 321 320 319 318 319 318 318 317 318 318 314 314 312 312 311 311 312 311 310 309 310 310 308 308 308
332 332 332 330 330 329 328 327 326 326 327 327 327 327 326 324 323 323 319 317 318 317 317 317 317 316 317 316 316 314 313 312 312 312 311 311 310 311 311 309 309 308 308
324 328 331 330 330 329 328 326 321 318 317 318 323 326 325 325 323 321 317 318 318 316 316 318 318 317 317 317 316 314 313 313 313 313 312 312 313 312 310 309 309 308 307
321 323 327 329 329 328 327 324 317 317 317 317 320 326 325 321 322 321 316 316 315 315 315 316 317 316 315 314 316 313 312 313 313 313 313 312 312 310 310 309 307 306 305
317 320 324 327 326 326 325 323 318 317 317 317 317 319 322 321 317 317 314 315 315 315 315 315 314 314 314 313 313 313 314 313 313 312 312 311 310 309 306 305 304 303 301
320 323 324 325 326 325 324 323 320 318 316 317 316 316 315 315 315 315 315 314 314 313 312 312 311 311 312 312 312 311 311 311 310 312 310 306 305 304 303 301 298 297 297

GFSGL_925_thetae_057.txt.gz
Theta_e
346 344 343 344 342 343 341 339 338 338 339 339 339 340 339 337 336 336 336 336 336 337 339 341 341 342 342 343 341 340 338 337 330 328 328 328 327 326 326 326 325 324 322
347 344 345 342 342 342 339 339 339 338 339 339 339 338 339 335 335 335 335 335 336 336 337 338 339 341 341 342 340 340 338 336 332 327 326 326 326 325 324 323 322 321 320
346 343 343 343 344 342 340 339 338 337 337 338 337 338 337 334 333 333 333 334 334 335 336 337 337 338 339 340 340 339 335 333 331 327 324 324 323 323 322 321 320 317 316
344 344 343 343 343 341 340 339 339 339 338 338 337 337 336 335 333 326 327 331 333 334 335 335 333 334 336 336 336 334 331 329 328 326 324 323 322 322 322 322 320 319 316
344 344 343 343 342 342 340 339 339 338 338 337 335 335 336 335 333 325 324 329 331 332 333 335 334 331 333 333 333 331 328 326 325 325 324 323 322 321 322 322 321 318 317
343 344 344 344 342 342 341 340 340 339 337 336 336 334 334 334 334 330 325 324 324 328 330 333 334 331 329 330 330 330 330 328 327 325 324 323 323 323 322 321 319 319 319
342 343 342 344 344 342 341 340 340 339 337 336 336 334 332 333 333 332 329 327 327 326 324 326 331 332 329 328 328 328 329 329 329 329 327 325 324 324 323 322 320 322 323
344 342 343 343 343 342 341 341 339 338 338 337 333 332 329 332 331 331 330 329 329 328 327 323 324 329 330 329 328 328 327 326 326 326 326 324 324 324 323 323 323 324 324
342 341 341 344 344 342 340 339 337 337 336 336 335 327 327 329 329 329 328 327 327 329 325 322 317 324 325 326 326 327 326 326 327 327 325 323 320 323 324 323 324 324 322
344 343 342 343 341 340 339 337 335 336 333 336 334 329 325 326 329 329 329 328 325 324 323 322 317 318 318 315 310 313 307 306 308 307 308 309 309 309 313 315 318 319 319
344 342 341 340 339 338 337 336 335 332 333 333 333 333 332 324 328 329 329 329 328 326 322 321 321 319 316 314 313 317 314 310 311 312 312 312 311 310 308 307 310 317 318
340 339 336 334 334 333 338 338 336 333 332 334 331 333 333 331 324 328 329 330 329 328 325 323 320 320 321 322 320 320 318 316 315 314 314 313 313 312 309 309 309 309 309
338 335 335 337 338 338 337 337 337 333 333 334 334 333 335 334 330 324 327 327 327 329 327 324 320 318 319 319 318 318 320 320 317 317 318 318 318 318 311 311 310 311 311
339 337 336 335 334 334 333 333 333 335 337 335 336 335 335 335 334 330 324 324 327 328 328 325 321 316 313 311 308 307 314 314 312 313 313 313 314 316 312 311 309 309 309
335 334 333 332 331 330 330 329 329 330 331 332 334 336 336 334 335 335 331 324 325 327 326 324 321 313 308 307 308 310 310 310 312 315 315 313 312 311 310 309 308 308 308
331 331 332 331 331 330 329 328 327 327 327 329 330 331 332 333 334 333 333 330 323 324 322 322 319 314 309 307 310 310 310 310 310 310 310 310 310 310 310 308 308 308 308
329 329 329 330 330 329 328 328 326 325 325 326 328 329 329 330 331 332 332 331 327 321 320 320 318 316 314 309 308 312 310 312 311 310 310 310 310 309 308 307 308 308 308
330 329 328 328 327 328 328 327 326 325 324 324 325 327 328 328 329 329 330 330 325 318 318 317 318 318 318 314 309 311 312 312 313 311 310 309 309 309 308 307 308 309 308
332 331 330 329 328 328 328 327 327 327 325 325 325 325 326 327 327 327 328 326 325 321 317 316 318 318 318 316 312 310 312 313 314 311 310 310 309 309 309 309 308 308 309
333 332 331 330 330 329 328 327 327 327 326 326 326 326 324 324 324 325 325 326 324 320 319 318 320 316 318 316 315 313 310 313 314 315 314 310 310 309 309 309 308 308 308
330 332 332 331 331 330 329 328 327 327 326 326 326 327 327 325 325 324 324 322 322 322 321 320 318 320 318 316 316 314 314 315 314 315 315 311 310 309 309 309 309 309 308
323 324 328 330 330 329 329 328 327 327 326 324 324 322 323 325 325 324 324 323 323 323 321 320 320 319 319 317 318 318 318 316 314 313 313 311 310 310 310 310 309 309 308
320 320 321 325 327 328 328 328 326 325 323 318 317 317 320 322 323 324 323 322 320 317 319 319 318 317 317 317 316 315 316 316 315 313 312 311 310 310 310 309 309 310 307
317 318 318 321 326 327 327 327 325 323 318 317 316 317 318 321 323 323 323 322 318 315 315 315 316 316 316 318 317 317 317 316 314 314 312 312 312 311 310 310 310 309 308
315 318 321 322 324 325 325 325 323 320 317 317 317 316 316 318 319 318 318 319 316 315 314 315 315 315 315 315 313 313 314 314 315 313 312 311 311 310 311 311 309 308 306
319 319 320 321 322 323 322 320 318 317 316 315 316 316 316 314 314 314 313 312 312 312 312 311 311 312 312 312 312 311 310 312 312 312 311 311 310 309 308 306 306 306 306

GFSGL_925_thetae_060.txt.gz
Theta_e
349 346 344 343 343 341 340 340 338 338 339 338 338 340 338 337 336 336 337 336 336 338 340 340 341 342 343 344 342 339 338 336 330 327 328 326 327 328 327 326 325 324 322
348 345 343 343 340 341 341 338 338 338 338 339 339 339 338 335 334 335 335 335 335 336 337 339 339 341 341 342 341 339 338 336 332 327 325 325 324 324 324 322 321 320 318
347 344 344 341 342 342 339 338 338 338 337 338 338 338 337 334 333 333 333 334 334 335 336 336 336 338 339 339 339 339 337 335 333 328 325 324 322 322 320 319 319 317 315
346 344 343 343 342 342 340 339 338 338 337 337 337 337 336 334 332 326 327 332 333 334 335 333 332 335 337 338 338 336 334 333 330 327 325 323 322 321 321 319 317 315 315
345 344 343 343 342 341 340 339 339 338 338 337 336 336 336 335 333 324 329 331 332 333 335 334 331 333 333 333 335 332 332 331 327 326 324 323 322 321 322 321 320 319 316
344 344 343 343 342 342 341 339 339 338 338 337 336 335 335 334 334 326 323 326 328 330 332 333 331 329 330 330 331 330 328 329 327 325 324 324 323 323 323 322 320 317 318
344 343 342 344 343 341 341 340 339 339 338 337 335 334 334 333 334 330 326 325 324 324 326 331 331 328 328 329 328 328 328 328 329 329 327 326 325 325 324 321 320 319 321
343 341 342 342 343 343 342 340 339 339 337 337 336 335 331 332 333 332 330 327 327 327 326 323 327 329 328 327 327 328 328 328 327 328 328 327 326 325 324 323 321 322 323
344 343 341 341 342 342 342 340 339 339 336 337 337 336 332 328 331 331 331 329 329 328 327 324 321 327 328 328 327 326 326 326 325 325 325 324 324 323 323 323 322 323 322
344 342 341 341 342 341 339 338 338 337 337 335 333 334 335 327 326 329 329 328 326 327 326 323 317 322 325 325 325 326 325 325 326 323 319 315 316 322 324 322 323 323 320
343 342 341 341 340 339 337 337 336 334 334 334 334 333 333 332 326 327 328 328 327 325 324 322 320 316 317 313 310 313 309 311 309 308 309 309 309 309 310 310 312 315 317
341 339 338 337 336 334 335 336 336 334 333 333 332 332 332 332 333 326 329 328 328 327 326 325 321 320 316 312 311 315 314 309 310 311 312 312 311 310 309 308 310 312 314
336 334 334 335 335 336 335 335 334 333 332 334 333 332 332 334 334 333 325 327 328 328 328 328 324 320 320 320 320 316 316 314 311 312 312 313 313 313 310 309 310 310 308
337 336 336 335 335 334 333 332 333 334 334 333 333 333 332 332 334 334 330 325 325 326 327 328 325 321 318 318 317 318 318 319 317 317 317 317 318 317 316 311 310 309 311
336 335 334 333 333 331 330 329 328 328 328 330 332 332 334 334 334 334 334 332 325 325 325 325 324 319 315 313 312 310 307 316 316 314 312 313 313 314 315 315 311 308 308
333 332 332 331 331 330 329 328 327 326 326 325 326 328 330 330 332 332 333 334 333 328 324 324 322 321 316 313 309 308 308 309 310 310 313 314 313 313 312 312 309 308 308
329 329 330 330 330 329 328 326 326 326 325 324 324 324 326 328 329 330 331 332 331 326 322 321 321 320 318 316 312 308 308 310 310 309 310 311 311 310 310 309 309 307 307
329 328 327 327 326 327 327 327 326 326 325 325 324 324 325 326 327 327 328 328 320 318 319 319 319 318 317 316 314 311 308 310 310 310 310 310 309 309 309 309 308 307 308
330 329 329 328 327 327 327 327 327 326 326 326 326 326 326 325 325 327 326 326 322 319 319 317 318 317 316 316 314 314 311 309 311 311 312 310 309 309 308 308 307 307 308
332 332 331 330 330 329 328 327 327 327 326 326 325 326 326 324 324 324 324 324 321 321 322 322 320 318 317 318 317 315 312 309 311 312 312 312 310 309 308 308 307 307 307
323 324 327 329 330 331 330 329 328 327 327 326 326 325 324 324 324 323 324 324 324 323 323 324 324 320 320 320 320 316 315 313 311 310 311 312 311 309 309 309 308 308 308
319 319 320 322 324 327 328 328 327 327 327 326 326 323 319 318 319 321 321 322 323 323 323 322 321 320 320 320 319 319 319 315 313 311 310 313 313 312 310 309 308 308 308
316 317 317 318 319 322 325 326 326 326 326 325 322 316 316 318 320 320 320 320 320 320 320 318 317 316 317 317 317 316 316 316 316 315 312 313 312 310 310 309 309 308 308
315 315 315 318 319 320 323 323 323 322 320 317 316 316 316 315 316 318 318 318 318 319 316 315 314 314 314 315 315 315 316 316 316 315 315 315 312 311 310 308 310 309 308
317 316 316 318 319 320 321 320 317 316 315 315 314 315 315 314 314 314 314 313 313 313 312 312 311 311 312 313 314 314 314 313 313 314 314 314 313 314 313 312 312 309 307
315 315 315 314 315 316 315 314 313 314 314 314 314 314 313 313 313 313 313 313 313 313 313 313 312 312 312 311 311 312 313 313 313 312 311 312 314 310 310 310 310 309 305

GFSGL_925_thetae_063.txt.gz
Theta_e
352 350 349 347 346 342 341 342 342 340 340 340 341 342 340 339 336 337 339 338 339 339 340 341 342 341 342 343 344 344 338 336 331 328 328 328 328 329 328 327 326 326 323
352 350 348 347 345 344 343 342 338 340 338 340 341 341 340 338 336 337 337 337 337 338 339 341 342 342 342 342 342 341 338 336 332 327 325 325 326 325 325 323 322 324 322
351 348 347 345 344 344 344 341 340 340 340 340 340 340 339 336 335 335 335 335 336 336 338 339 339 341 340 340 343 339 337 336 334 328 324 324 322 323 321 320 320 319 319
350 348 347 345 344 344 343 341 341 340 340 340 339 340 338 336 335 330 330 334 335 335 336 335 336 338 339 338 339 337 335 333 331 327 324 322 321 321 321 319 319 318 316
349 348 347 346 345 344 343 342 341 339 340 338 337 339 338 336 334 329 331 333 334 335 335 335 334 334 334 336 336 335 334 332 328 326 324 322 321 320 321 320 319 316 317
349 348 347 346 345 344 343 342 341 339 338 337 336 336 338 336 334 330 327 331 332 334 335 333 331 330 331 331 332 332 332 331 329 327 326 324 323 322 322 321 319 319 322
348 347 346 346 345 345 344 343 342 341 338 337 336 335 334 336 334 331 326 328 328 328 332 333 330 328 330 330 330 328 328 329 330 332 331 329 327 325 324 322 322 323 326
347 346 346 346 346 346 345 344 343 342 341 340 336 335 334 332 332 332 329 328 329 329 326 327 331 330 329 330 330 330 330 329 328 328 330 330 328 327 326 325 324 325 326
347 345 345 345 345 346 344 344 343 340 339 338 337 336 335 332 329 332 330 331 329 330 328 324 326 329 328 327 329 329 329 327 327 327 328 328 327 326 327 326 326 326 327
348 346 345 344 345 341 342 343 339 340 338 337 335 335 335 335 333 328 331 332 331 330 328 325 321 325 326 326 328 328 329 327 325 324 324 324 323 323 323 326 326 325 326
345 344 344 344 344 343 340 338 338 338 337 337 335 334 333 332 332 328 328 330 329 328 328 326 323 319 323 323 322 324 326 324 324 322 319 317 318 322 324 323 322 324 323
343 342 342 340 339 339 339 337 336 337 337 336 335 333 332 332 332 332 326 328 327 326 326 325 324 321 317 316 310 312 309 312 314 313 313 313 313 313 312 312 310 315 317
339 337 335 334 334 338 334 334 335 335 335 335 333 335 335 332 332 332 329 327 328 328 326 327 327 323 320 313 310 311 316 310 313 314 315 315 315 314 314 311 310 309 309
335 336 336 337 336 336 334 335 335 333 334 335 334 334 333 334 334 333 332 330 328 327 328 327 326 325 320 319 319 317 314 316 316 315 316 316 316 317 315 313 313 313 313
336 337 337 336 335 334 332 330 329 328 328 330 331 331 332 333 334 333 333 333 333 331 326 326 324 322 320 317 316 316 318 320 318 319 319 319 319 319 319 318 314 313 312
338 337 335 334 333 332 331 330 327 327 326 325 324 324 325 327 329 330 330 330 330 331 325 323 322 322 322 319 316 316 315 313 315 317 318 319 317 316 317 317 315 312 311
334 333 331 331 331 331 330 329 329 328 325 325 324 323 323 324 325 327 328 329 329 326 321 323 323 324 324 320 318 315 314 312 311 311 313 313 314 315 314 315 314 312 311
331 329 330 330 330 330 330 330 329 329 329 329 327 326 326 326 326 325 327 328 327 325 320 321 322 323 323 321 320 316 314 312 310 310 312 312 314 315 314 313 312 312 311
331 331 331 331 330 330 330 330 329 329 329 329 328 328 326 325 325 325 325 325 324 323 322 319 320 320 320 321 319 316 313 310 311 310 311 312 312 312 312 312 312 311 311
333 332 331 332 333 332 332 331 331 331 330 329 328 327 328 324 325 326 322 320 322 321 321 322 321 319 319 319 318 317 316 316 316 313 311 312 313 312 312 312 312 312 311
325 326 324 328 330 331 332 332 331 331 330 329 329 328 324 321 321 321 322 323 322 323 324 323 322 321 320 319 319 317 318 318 317 314 312 312 313 314 313 312 312 312 311
320 321 322 323 325 327 328 329 330 330 330 330 329 328 318 319 320 321 322 322 323 323 323 323 323 321 321 321 321 319 319 318 317 316 315 312 312 314 314 313 312 313 312
317 318 318 319 321 322 324 327 328 328 329 327 324 321 320 320 320 320 320 320 320 320 321 320 318 317 317 317 318 318 318 319 320 319 315 314 314 314 312 312 312 312 311
317 318 318 319 320 322 324 325 324 320 320 319 319 319 318 318 317 317 316 316 316 317 316 315 314 313 313 314 314 315 316 315 316 317 317 316 314 312 310 312 315 311 310
316 316 315 317 318 320 320 320 319 318 318 318 318 317 317 317 317 316 316 316 315 315 313 313 313 313 313 314 314 313 312 312 312 311 312 312 312 313 312 311 310 309 309
314 314 315 316 316 316 316 316 315 315 314 314 314 314 313 313 313 313 313 313 313 313 312 311 311 309 309 309 310 311 311 311 310 311 310 310 310 311 311 309 309 310 310

GFSGL_925_thetae_066.txt.gz
Theta_e
356 355 353 351 350 348 347 346 346 345 344 344 344 345 344 344 343 342 342 341 343 343 343 344 345 346 346 346 347 347 345 342 334 329 329 329 329 329 328 327 330 329 324
357 356 353 352 350 348 347 346 345 344 343 343 342 343 343 342 341 340 340 339 340 340 341 343 345 344 346 348 347 347 344 341 333 329 327 327 327 327 326 328 330 328 326
358 356 352 351 349 348 346 346 343 343 343 342 342 342 342 341 340 339 338 338 339 339 340 341 341 343 344 345 346 345 343 339 335 330 326 325 324 325 325 324 326 325 323
357 354 351 350 348 347 346 345 344 343 343 342 342 342 341 340 339 337 333 336 338 338 339 339 339 340 343 341 344 342 341 335 333 329 326 324 322 322 324 325 325 322 318
356 352 350 350 348 347 346 345 344 343 343 343 342 342 341 339 338 336 334 336 337 338 339 338 338 336 338 340 340 341 339 336 332 330 326 324 322 321 323 324 323 324 321
355 351 350 350 348 348 347 345 345 344 344 343 342 341 340 338 335 332 333 335 336 337 338 337 336 333 332 332 337 339 340 338 334 330 327 325 323 323 325 325 326 322 320
355 350 350 350 348 348 347 347 347 346 346 345 342 340 338 337 336 332 327 333 332 333 335 336 334 331 334 334 331 331 334 334 333 330 329 328 326 325 324 323 322 319 324
353 350 350 349 348 347 348 348 348 347 346 345 343 340 335 334 335 333 329 333 332 332 331 333 334 334 333 334 334 334 333 332 331 333 334 333 332 327 326 326 327 324 326
352 350 349 348 347 347 348 347 349 346 346 345 344 341 335 334 333 332 331 333 333 333 332 330 331 333 330 329 333 333 333 333 330 330 331 332 331 332 329 327 327 327 328
351 350 349 348 347 348 348 349 345 344 342 342 341 340 336 333 332 330 332 333 334 333 333 331 325 329 329 326 331 331 332 331 329 328 328 328 328 328 328 329 330 329 329
350 350 349 348 349 348 348 346 343 342 340 341 339 339 338 333 333 333 331 332 334 333 332 331 329 324 322 325 326 330 330 331 329 329 328 328 328 328 327 327 329 327 326
349 349 349 347 347 346 345 342 342 341 340 340 339 337 337 333 331 332 331 329 332 332 332 331 329 325 321 321 322 320 323 322 324 324 322 320 320 321 324 325 325 326 324
345 344 345 343 343 342 342 341 338 340 339 338 337 337 338 337 336 332 331 331 328 328 329 329 328 327 323 318 317 312 310 313 319 319 319 318 317 316 315 317 317 318 319
339 338 337 339 340 339 339 339 339 339 339 337 339 339 338 337 336 334 330 332 329 327 328 328 327 326 324 321 318 312 312 318 319 319 320 319 319 318 317 317 316 316 314
338 337 338 339 337 339 339 338 336 335 335 336 335 335 335 334 334 334 334 334 333 331 328 330 330 329 327 323 323 324 320 319 320 320 321 320 320 319 319 318 317 317 316
339 339 339 339 338 335 333 332 328 329 327 325 325 325 328 326 327 329 330 330 330 330 327 326 329 331 330 329 329 326 325 322 323 323 322 323 322 321 321 321 320 320 317
339 338 335 333 332 331 329 330 330 328 325 325 324 324 324 324 324 325 326 327 328 328 326 324 325 326 326 326 326 327 326 321 319 319 320 321 321 320 320 320 320 321 319
334 332 330 331 330 330 330 329 328 328 329 329 328 327 326 326 326 326 325 324 326 325 324 324 325 326 325 325 327 325 323 321 319 316 313 314 315 316 316 317 317 318 318
329 329 331 331 331 330 330 330 329 328 329 329 328 327 327 326 325 325 324 322 328 330 327 324 323 323 322 323 323 323 322 319 318 316 313 311 312 313 314 315 316 316 315
328 331 331 332 330 330 329 328 328 328 330 330 329 328 328 326 326 325 325 327 325 325 327 326 326 324 322 320 321 321 319 317 315 313 312 312 312 312 314 315 315 315 315
329 330 328 328 329 328 327 327 328 328 329 329 330 329 326 323 324 324 324 324 325 326 326 327 327 326 325 322 320 319 317 318 315 314 314 314 314 314 314 313 315 315 314
324 324 325 325 325 325 326 326 326 328 328 329 329 328 322 323 324 324 324 324 324 323 324 324 325 323 322 321 322 322 321 321 321 321 320 318 316 316 313 314 315 314 315
321 321 321 322 323 324 324 325 326 327 328 327 325 324 323 323 322 322 322 321 321 320 319 319 319 319 318 317 318 318 318 318 318 319 319 319 319 316 314 313 314 314 314
319 319 321 321 322 323 323 325 325 323 324 324 323 322 322 321 320 320 320 319 318 317 317 316 316 315 314 313 313 313 313 312 313 313 314 315 317 316 316 315 314 314 313
318 318 318 319 321 321 322 321 321 320 319 319 319 317 316 316 317 316 316 315 315 315 315 313 312 310 309 308 309 310 310 309 309 309 310 312 312 312 312 313 313 312 311
316 316 317 317 317 316 317 316 316 316 315 314 314 314 315 315 314 314 314 314 313 312 311 310 310 310 310 310 307 307 308 307 307 306 308 308 307 306 306 306 306 306 305

GFSGL_925_thetae_069.txt.gz
Theta_e
355 356 354 352 351 350 349 347 346 347 346 345 344 346 345 345 344 344 344 344 343 345 345 345 346 347 347 346 350 346 345 345 342 331 331 331 332 332 332 331 331 329 326
356 356 355 353 351 349 349 347 347 346 345 345 343 343 343 343 342 343 341 340 341 342 343 343 344 345 347 348 349 347 345 344 340 332 329 329 330 330 331 331 331 330 327
357 356 352 353 351 349 348 346 346 345 345 344 343 343 342 342 341 341 341 341 341 341 341 343 343 344 345 347 348 349 345 343 338 331 328 327 327 328 329 331 330 328 327
357 356 351 351 350 349 347 346 345 345 345 345 344 343 342 342 340 339 337 337 340 340 341 341 341 342 344 345 346 346 345 342 338 330 328 326 326 327 327 328 328 326 322
355 354 351 351 350 349 347 346 345 345 344 344 344 343 343 341 340 340 338 337 339 339 340 340 340 337 338 341 342 345 342 339 335 332 327 325 324 324 326 329 329 328 324
355 354 351 351 350 349 348 347 346 345 345 344 344 343 342 341 336 335 332 337 338 339 339 338 339 334 333 335 339 341 341 339 335 333 330 328 327 326 328 328 327 326 326
356 354 351 352 350 349 348 346 347 347 347 346 345 344 343 340 337 336 331 334 336 336 337 338 336 334 335 336 333 337 339 339 338 336 333 330 327 327 328 325 325 328 328
357 354 352 351 350 350 348 348 349 349 349 347 347 345 344 341 336 334 332 330 334 335 334 336 337 337 336 336 336 336 336 335 334 334 333 332 331 329 328 329 328 327 325
357 354 352 351 350 349 349 349 350 350 348 346 345 345 344 340 335 335 333 330 334 335 335 334 333 335 334 332 336 336 335 335 333 334 334 335 334 332 330 327 327 327 327
357 353 351 350 349 349 349 349 351 349 346 344 344 343 342 340 336 333 333 331 333 335 334 334 331 331 333 325 333 334 334 334 332 330 330 331 333 332 329 329 330 328 329
354 352 351 350 350 349 351 351 348 346 344 344 343 342 341 340 337 333 331 331 333 334 334 334 333 327 326 324 326 334 333 333 332 332 332 332 331 332 330 330 331 330 330
353 352 352 351 350 350 350 349 346 345 344 343 342 342 339 340 335 334 334 332 332 333 334 333 332 330 326 322 324 326 328 329 330 329 329 329 330 330 329 329 329 330 329
353 352 352 350 349 348 348 345 343 342 342 342 341 340 340 338 338 334 333 333 331 329 331 330 330 329 327 322 320 322 319 319 322 325 326 324 322 322 322 325 327 327 326
348 347 346 346 346 345 344 343 342 341 340 340 340 341 342 340 339 337 333 332 331 331 329 329 329 328 327 325 322 318 316 316 319 322 323 323 322 320 318 318 319 319 318
344 343 343 343 342 342 342 341 341 341 338 338 337 337 335 335 336 335 335 334 334 333 333 333 332 332 330 329 327 323 318 317 319 322 324 324 323 322 320 319 319 318 318
340 340 340 340 341 342 342 338 334 332 331 330 326 326 328 327 325 326 328 329 330 330 330 329 329 330 332 332 332 330 328 325 324 324 325 324 322 322 323 322 322 320 319
340 340 340 341 340 337 335 333 334 326 325 324 324 324 324 325 324 325 325 326 326 327 327 327 326 327 328 329 330 329 329 328 327 326 323 323 322 322 324 323 323 323 322
339 336 337 335 333 331 330 329 328 331 332 330 325 326 325 325 326 326 326 325 327 327 328 329 329 328 328 328 327 327 327 327 326 323 321 321 321 321 319 318 318 317 318
329 330 330 331 331 330 331 329 329 328 328 328 331 327 327 327 326 325 324 325 326 327 330 330 330 328 328 326 324 324 324 324 323 321 320 320 318 316 315 315 316 316 317
324 324 324 323 325 331 329 327 328 328 328 329 330 329 328 327 327 327 326 328 328 327 326 329 328 328 326 325 324 323 321 320 319 318 317 316 315 314 314 314 315 317 317
321 324 320 321 321 329 329 330 328 327 328 330 331 330 328 327 326 325 325 325 325 325 325 326 326 326 324 325 325 324 323 322 321 320 317 316 315 314 314 314 314 314 315
325 326 327 328 326 325 326 326 326 326 327 328 329 328 324 324 324 323 323 322 322 323 323 323 323 320 320 319 318 317 318 318 319 320 322 321 319 317 316 316 315 315 315
322 322 322 322 323 323 324 323 325 327 327 326 325 323 322 322 322 322 322 321 319 320 319 319 318 317 317 317 315 313 312 312 313 313 314 314 316 318 319 318 317 316 315
320 321 323 323 324 324 325 326 324 323 322 322 323 323 322 322 320 319 319 318 318 318 317 317 315 313 312 311 311 310 309 309 308 309 312 313 313 313 313 314 314 315 314
320 320 320 321 323 323 323 323 322 322 321 320 319 318 319 318 317 317 317 315 315 314 313 312 312 313 313 311 310 309 307 307 307 307 311 312 311 310 310 310 309 309 309
318 317 317 317 318 319 319 319 319 317 317 316 316 315 314 314 315 315 315 314 313 313 313 311 310 311 306 307 304 302 302 306 307 307 308 310 309 309 307 308 308 307 307

GFSGL_925_thetae_072.txt.gz
Theta_e
357 354 355 353 352 351 350 349 347 347 347 345 344 345 346 345 344 343 342 342 343 343 343 344 344 345 345 346 344 344 345 344 339 333 333 333 334 334 334 331 330 329 327
356 355 354 352 352 352 348 349 347 347 346 346 345 343 344 340 342 342 341 341 342 342 341 342 341 344 345 344 345 345 345 344 337 333 331 331 332 332 332 332 331 329 326
356 355 354 352 352 351 348 347 348 346 346 345 344 344 343 343 341 341 341 341 341 341 341 340 343 343 344 344 345 346 344 344 338 332 329 329 330 332 332 332 331 329 327
356 356 355 352 352 350 348 347 347 346 346 344 344 343 342 342 342 341 339 337 339 341 339 339 341 342 343 345 345 345 343 341 336 331 329 328 328 330 331 330 329 327 326
359 356 356 352 350 350 349 348 345 345 345 344 344 343 342 342 341 340 339 338 338 340 340 339 341 339 334 341 343 343 342 339 335 330 328 327 327 328 329 329 329 327 324
359 354 355 354 350 349 348 347 345 345 345 345 344 343 343 342 339 337 336 334 338 338 338 339 339 336 332 335 340 343 340 339 335 333 330 327 327 327 328 328 330 329 326
358 355 355 353 353 349 348 347 347 346 346 347 345 346 344 344 341 337 335 330 335 336 337 338 337 338 336 336 335 339 340 339 337 335 331 330 328 328 328 330 329 328 327
359 356 355 355 352 348 348 348 346 347 349 347 346 346 344 343 341 336 333 331 332 334 334 335 336 336 337 338 337 336 335 336 338 337 335 333 331 330 329 329 328 327 327
360 357 355 355 352 350 351 350 348 349 349 346 345 343 346 343 339 336 335 333 331 332 334 335 334 336 335 332 336 336 334 334 334 333 334 334 332 331 329 328 328 327 326
359 356 355 355 354 353 351 350 350 348 347 346 346 344 343 341 339 335 335 333 331 332 334 335 334 332 333 329 329 335 336 335 332 332 333 333 336 334 331 329 329 327 328
357 356 353 353 353 351 349 350 349 349 347 346 345 344 343 342 339 335 333 333 331 333 334 333 334 333 327 328 324 332 333 332 333 332 332 332 331 333 331 330 329 329 329
354 354 352 352 352 350 349 349 350 347 347 345 344 343 341 341 338 335 333 332 331 333 334 333 331 333 328 325 323 323 328 329 332 332 331 333 333 332 331 330 330 330 330
342 334 345 351 349 350 349 348 348 346 345 345 343 341 342 342 340 336 333 333 333 333 331 332 331 331 329 327 325 322 323 322 323 326 327 330 330 330 331 331 329 329 330
331 328 343 347 349 348 347 346 344 344 343 342 341 341 341 342 341 337 334 333 332 331 331 331 330 329 329 328 326 324 321 320 318 319 320 322 324 323 324 328 329 330 328
336 338 338 345 345 345 344 343 343 341 342 341 340 337 336 335 338 337 336 335 334 333 332 333 333 330 330 330 328 327 325 321 318 317 317 322 325 326 321 319 318 318 319
343 338 342 343 342 342 342 338 335 336 334 334 334 331 328 327 325 325 326 327 329 330 330 330 331 331 331 331 332 331 330 326 324 322 320 322 325 324 322 322 322 322 320
340 340 340 340 340 340 341 339 331 328 325 323 322 322 325 326 325 326 326 325 326 326 327 328 327 327 328 329 329 329 329 330 329 328 328 326 324 323 323 322 322 323 322
324 328 335 332 334 335 336 336 330 328 327 324 324 324 323 324 324 325 326 324 325 326 329 331 328 328 329 329 328 328 327 326 325 325 325 323 323 323 323 322 322 320 319
323 322 322 322 322 326 330 328 328 329 332 332 327 325 325 325 325 326 325 325 329 328 329 330 330 329 327 326 325 324 324 324 322 322 321 320 319 319 319 318 317 317 317
323 324 326 322 323 319 321 324 329 328 328 331 330 327 327 326 327 326 325 328 327 327 326 326 327 326 327 326 324 322 322 321 321 320 320 319 319 318 316 316 316 316 315
323 321 319 320 323 325 325 328 328 328 328 330 330 329 328 327 325 324 323 323 324 324 324 323 322 320 319 321 322 323 319 320 320 321 321 320 318 317 316 316 315 315 315
322 326 326 325 323 324 326 327 328 328 329 329 324 323 325 325 324 323 322 322 321 321 321 320 320 319 319 317 315 315 314 313 313 313 313 314 314 316 318 318 317 316 316
323 322 323 324 326 326 326 326 327 328 327 325 324 323 323 322 322 322 322 321 320 319 318 317 315 314 314 313 311 310 309 308 310 310 313 313 314 313 313 313 313 314 314
321 322 324 325 323 325 325 323 323 323 323 323 323 321 320 320 319 318 318 317 316 315 314 313 313 313 312 311 310 308 307 307 307 307 310 311 311 310 310 310 310 310 310
320 321 322 323 324 324 323 321 321 321 321 320 320 319 318 318 318 317 315 314 313 313 313 313 314 311 309 308 302 300 300 301 303 306 307 310 310 308 308 308 307 307 307
318 319 319 321 321 321 320 319 319 318 318 317 316 316 315 315 315 315 313 312 312 311 309 309 307 304 302 301 300 300 299 299 299 299 300 304 308 307 307 307 306 305 306

GFSGL_925_thetae_075.txt.gz
Theta_e
354 353 354 353 351 350 350 348 349 347 345 345 343 344 345 342 342 341 341 342 343 342 342 344 344 344 344 343 344 344 345 344 337 334 335 335 335 336 334 333 333 332 331
354 356 355 353 352 351 350 351 346 347 347 344 344 342 343 343 342 343 341 342 342 342 342 342 342 343 343 343 343 344 344 344 338 333 333 333 334 335 333 330 329 327 327
356 357 354 352 351 352 350 349 346 347 345 345 344 344 341 341 342 342 339 341 339 341 341 341 339 342 344 343 344 343 343 344 339 334 330 331 333 333 332 332 330 329 325
355 356 354 352 351 351 349 349 346 346 346 345 344 343 341 340 341 341 340 338 338 340 340 337 338 341 341 342 342 344 343 339 337 332 330 330 332 332 333 332 328 327 326
356 356 354 352 352 351 348 349 347 345 346 344 343 342 341 340 342 341 339 337 337 338 339 338 339 339 333 335 340 343 341 338 334 330 329 328 329 330 331 329 328 327 325
357 355 356 354 351 351 349 348 347 345 345 345 344 343 342 341 341 339 339 337 338 338 338 339 339 337 332 335 340 342 342 339 334 330 329 328 328 329 330 330 328 327 324
357 356 356 355 352 350 350 349 347 344 344 345 344 343 343 343 341 338 336 333 336 336 337 337 337 339 337 333 337 340 341 339 338 335 331 329 329 330 329 329 329 329 326
359 357 356 355 352 349 349 347 346 345 345 344 345 345 344 344 343 339 335 331 332 335 334 335 336 335 338 337 334 334 335 336 338 336 336 334 333 332 331 330 329 329 327
360 357 356 353 354 351 349 347 346 347 346 347 346 345 344 344 341 340 335 333 331 332 333 334 335 336 334 333 336 335 334 334 334 334 334 334 333 332 330 328 329 327 327
360 359 356 354 353 351 348 348 347 346 347 346 345 344 343 344 341 337 335 334 330 332 334 334 335 332 334 330 331 335 335 334 333 332 332 333 334 333 331 330 329 327 327
356 355 342 335 331 340 348 348 348 348 347 345 345 344 342 341 339 338 334 334 331 333 334 334 334 333 329 328 325 332 333 332 334 331 330 331 331 334 333 331 329 329 328
342 340 331 330 333 331 330 336 346 346 345 345 345 343 342 341 339 335 333 333 331 333 333 333 332 333 332 326 325 323 329 330 332 332 332 333 332 331 332 332 331 330 329
338 330 327 330 331 330 330 329 344 345 344 345 343 341 342 342 339 334 333 332 331 332 332 332 331 331 329 328 327 324 322 323 324 326 327 328 332 331 330 330 330 330 330
333 329 329 329 331 331 329 329 343 343 343 342 341 342 342 341 339 334 333 332 332 332 332 331 331 330 330 329 328 327 326 323 321 320 319 320 320 323 330 331 330 330 330
331 327 330 329 337 340 342 343 342 341 341 341 342 341 341 340 337 336 334 332 332 331 331 332 333 329 329 329 329 328 328 327 324 322 320 318 317 322 325 326 327 329 329
337 332 334 330 337 342 339 339 339 339 339 340 337 336 337 339 336 333 333 333 333 333 332 331 331 331 331 331 330 330 330 330 326 322 321 320 321 322 324 323 322 322 322
327 332 335 336 338 340 338 334 332 331 330 332 330 329 327 324 324 324 324 325 325 326 327 326 328 328 328 329 328 328 329 328 328 328 327 327 327 326 324 323 324 324 323
323 322 323 324 327 329 330 335 331 329 324 323 323 325 325 324 325 326 325 324 325 326 328 328 328 327 327 328 327 325 324 323 324 324 323 322 321 322 322 322 322 321 320
324 325 322 322 323 324 323 327 329 329 325 324 323 323 322 323 324 325 325 326 328 326 329 329 328 326 325 324 323 322 321 320 320 321 319 319 318 318 318 318 318 317 317
321 322 323 325 325 325 324 324 325 327 328 328 325 324 324 324 324 325 327 327 326 327 328 326 326 327 325 324 323 323 322 322 320 320 319 319 319 317 316 315 315 315 315
323 325 320 325 326 325 326 324 325 324 326 329 328 327 326 326 327 325 324 323 321 321 319 318 318 318 318 319 316 316 315 314 313 314 314 314 315 316 318 317 317 316 316
322 323 323 325 323 322 324 326 327 327 327 328 328 327 324 322 322 321 320 320 319 319 318 317 316 314 314 313 312 310 310 310 310 311 313 313 314 311 311 312 312 312 312
321 323 325 326 326 326 326 327 327 326 324 323 323 323 323 322 321 320 319 318 316 315 314 314 312 311 311 309 306 306 307 307 307 308 311 311 311 309 309 309 309 308 308
321 322 323 324 324 323 323 323 324 324 322 321 320 319 319 319 318 317 316 314 313 313 313 312 311 311 309 302 300 300 300 301 301 303 306 309 310 309 307 307 307 306 306
320 321 323 324 322 320 321 321 320 321 320 319 318 319 318 317 315 314 313 313 313 313 313 312 311 308 302 301 301 301 300 300 300 300 300 301 306 307 306 306 307 306 305
319 320 320 320 320 319 318 318 318 318 317 317 316 316 316 315 314 312 311 312 311 312 309 306 305 303 303 302 302 301 301 300 300 300 300 300 303 303 304 305 305 304 303

GFSGL_925_thetae_078.txt.gz
Theta_e
350 354 354 353 352 350 349 347 346 347 346 345 345 345 345 343 343 343 343 342 342 341 339 340 342 343 343 343 343 343 344 342 336 334 335 336 336 337 335 335 335 337 336
351 353 353 352 353 351 349 347 349 346 345 344 343 342 343 343 342 341 341 341 342 341 341 342 342 341 343 342 343 343 344 344 339 333 334 335 335 336 334 333 332 331 330
353 353 353 353 353 351 349 349 349 346 346 345 344 342 342 343 342 342 342 341 341 342 341 341 341 341 343 343 343 343 343 343 342 334 332 333 334 334 331 330 328 327 326
353 353 353 354 353 351 350 349 349 346 346 343 345 343 341 340 341 341 341 340 338 339 340 338 337 339 341 340 342 342 341 340 337 334 332 332 333 333 330 330 328 327 325
355 355 356 355 352 351 351 350 348 346 346 344 344 342 341 340 340 341 340 339 336 337 339 338 337 339 338 333 339 342 340 338 334 331 330 330 331 332 331 329 328 328 326
356 355 354 354 353 350 350 350 348 347 345 344 344 342 341 341 340 340 340 337 337 337 338 338 338 336 331 335 340 342 341 339 333 331 329 330 330 331 331 330 328 325 323
355 355 354 355 353 351 351 350 348 347 345 345 345 342 342 342 341 340 338 336 336 337 337 338 338 335 334 334 340 341 340 339 338 336 331 330 330 331 331 330 328 327 326
356 355 355 354 352 350 347 338 346 347 345 344 344 343 342 342 342 341 339 334 332 335 336 336 336 336 337 333 336 339 339 337 337 335 335 334 333 332 332 331 330 328 328
356 355 355 350 341 337 334 331 330 335 344 344 344 344 343 344 343 341 339 334 330 334 334 335 335 335 336 336 334 334 333 333 335 335 335 334 333 332 331 330 329 328 328
350 357 350 343 339 335 326 330 327 327 329 343 344 345 344 343 343 340 339 336 332 332 333 333 335 335 333 333 335 334 334 333 333 333 332 333 333 331 330 329 329 328 328
345 349 346 341 338 336 331 330 329 329 331 339 343 345 345 343 342 341 337 335 333 330 333 334 334 332 332 329 329 334 334 334 333 332 331 331 333 333 331 330 329 329 328
338 340 340 341 340 340 335 331 326 328 334 341 343 343 343 342 340 339 337 334 333 330 332 333 333 333 331 328 325 328 331 329 333 332 330 331 330 330 332 333 331 330 329
335 330 327 328 335 336 332 331 330 329 336 342 342 341 342 341 340 338 335 332 332 330 332 332 332 331 331 326 326 324 323 326 327 330 331 332 332 332 331 331 331 331 330
335 331 329 330 331 330 329 329 328 329 331 337 341 341 341 341 340 337 332 332 331 331 332 331 331 329 329 327 327 327 325 323 322 321 321 320 320 320 322 328 331 330 330
332 329 328 330 335 334 330 328 330 332 338 339 338 340 339 338 339 337 333 332 331 332 331 330 330 330 329 328 328 328 327 326 325 323 321 319 318 318 321 323 328 330 329
334 335 332 337 335 338 337 337 333 337 340 340 337 338 339 338 338 335 333 332 331 331 330 331 332 330 329 329 330 330 330 330 327 325 322 321 320 322 323 322 322 322 323
323 325 329 334 333 336 334 333 328 329 335 338 337 337 337 337 337 335 334 333 332 331 331 327 328 328 328 328 328 329 328 328 328 328 326 326 325 325 324 323 323 323 323
323 322 323 324 326 329 333 333 328 325 322 323 328 332 331 328 326 325 325 325 325 326 327 326 327 327 327 327 324 323 323 323 323 322 321 321 320 320 320 320 319 319 319
321 323 323 324 325 326 328 328 328 326 322 318 321 323 323 324 325 324 324 325 325 326 328 327 326 325 324 323 322 321 320 319 318 318 318 318 317 317 316 316 315 316 316
324 323 324 325 325 325 325 327 328 326 325 323 322 321 321 323 323 323 325 326 327 325 327 327 326 324 323 322 321 321 321 320 319 319 318 318 318 318 317 315 315 316 316
321 322 323 325 325 325 325 325 326 328 328 325 325 325 327 327 325 326 325 326 326 325 325 325 323 323 322 321 318 314 312 312 312 313 314 314 313 312 313 314 315 315 315
321 323 323 324 323 323 324 325 325 326 328 326 326 326 326 326 322 320 319 319 318 318 317 317 315 315 313 312 311 310 309 309 311 312 312 311 310 309 309 309 308 307 308
320 322 323 325 325 325 325 325 326 326 327 327 324 322 321 320 319 318 318 318 317 316 315 313 310 307 305 304 305 306 306 305 306 309 310 310 308 308 307 307 306 306 305
320 322 323 322 323 325 324 323 323 322 321 322 322 320 319 318 317 316 315 314 313 313 312 311 308 303 301 300 300 300 300 300 300 300 301 305 308 307 306 306 306 306 305
319 321 322 321 320 320 320 320 319 318 318 318 317 317 317 316 315 314 313 313 312 312 311 310 305 302 301 302 302 302 301 300 300 300 300 300 304 303 305 305 305 305 304
319 320 320 321 321 320 320 320 319 318 319 318 318 317 316 314 313 313 313 313 312 311 309 304 302 303 303 303 302 299 296 296 297 298 299 300 301 300 299 300 301 300 300

GFSGL_925_thetae_081.txt.gz
Theta_e
350 352 355 353 350 349 350 348 344 344 346 344 343 343 343 344 343 344 343 342 340 338 336 334 334 336 337 339 339 341 341 341 338 335 336 337 337 337 336 336 337 337 337
350 350 353 354 352 351 350 349 347 346 346 345 344 344 344 344 343 342 341 340 340 341 341 340 340 341 341 340 340 342 340 340 339 334 334 335 336 337 335 334 335 334 334
351 349 350 354 352 352 351 349 347 346 345 345 343 343 342 343 343 342 340 341 339 339 340 340 340 341 341 341 342 342 342 342 340 336 333 334 335 336 333 331 332 331 329
352 351 349 352 352 351 352 350 348 348 346 345 344 343 342 341 341 341 341 339 339 339 339 339 340 339 339 341 341 341 341 340 340 338 334 333 334 333 333 329 327 326 326
353 352 351 351 351 352 352 350 349 349 345 345 344 344 343 340 339 339 340 340 339 336 336 338 338 337 339 338 337 339 339 339 337 333 332 331 332 331 330 329 328 327 327
353 353 351 351 352 353 349 343 344 345 346 346 344 343 343 341 340 339 339 340 338 337 336 338 337 337 335 331 335 339 340 338 334 333 331 331 331 332 331 330 329 325 324
349 354 353 352 350 346 341 340 340 338 339 336 340 343 343 343 340 340 339 339 338 337 337 337 337 336 335 333 336 341 340 339 338 337 334 332 331 332 332 330 330 328 327
352 353 352 352 348 344 341 342 339 337 334 342 341 340 342 342 341 340 339 336 335 334 335 336 336 336 335 335 335 339 338 338 336 334 334 334 333 332 333 332 331 329 327
353 354 354 352 350 343 341 339 336 337 331 332 331 329 335 342 342 341 339 338 335 333 334 335 336 335 335 335 333 336 336 337 336 334 333 334 333 332 331 331 329 328 327
346 349 354 353 349 341 337 331 333 331 328 330 333 330 333 339 342 342 341 338 334 330 333 334 335 335 334 335 335 334 333 332 334 335 334 333 333 332 331 330 330 328 328
341 342 348 348 344 343 334 331 329 328 331 329 327 326 331 339 343 342 340 339 336 332 332 333 334 334 333 332 330 333 334 332 332 332 331 332 332 332 330 329 329 329 329
338 336 339 343 340 338 336 334 330 327 328 328 328 329 336 340 343 342 340 339 334 333 331 333 333 332 331 330 328 328 333 332 331 332 330 330 330 330 331 331 330 329 329
338 334 332 329 329 332 334 332 331 329 328 330 333 337 339 340 342 341 339 336 333 331 330 332 332 332 332 329 326 324 326 328 328 331 331 330 331 330 331 331 330 331 330
334 333 329 328 329 332 330 329 329 329 328 333 335 338 338 338 338 339 337 335 332 331 331 331 330 330 331 327 325 325 324 323 322 322 322 323 323 322 320 321 324 329 329
329 331 332 328 331 335 332 328 328 329 329 329 333 332 336 337 338 339 335 332 332 331 332 331 330 328 326 327 328 328 327 326 325 323 321 320 318 318 318 320 324 328 328
322 324 325 328 334 335 333 327 328 329 332 334 331 331 338 335 336 337 334 332 331 330 330 330 329 329 329 328 328 329 330 329 328 325 322 321 321 320 322 323 322 322 322
322 323 324 325 327 331 334 333 326 323 330 332 337 334 334 335 336 336 333 332 331 331 330 330 330 330 329 329 329 329 328 328 328 327 326 325 325 325 324 323 323 323 323
322 322 323 324 325 326 330 332 328 324 321 314 321 334 335 336 335 333 332 331 328 329 330 329 327 327 327 327 327 326 324 324 323 322 321 320 320 320 319 318 318 318 318
321 323 324 325 325 325 328 328 325 320 317 315 315 319 324 331 331 330 330 329 328 326 326 326 326 326 326 324 322 321 319 319 318 318 318 317 317 316 316 315 315 315 315
321 322 323 324 325 325 326 326 323 322 322 321 321 322 323 324 323 323 323 324 324 325 326 325 324 322 321 320 320 319 319 319 318 318 317 317 317 317 315 314 315 315 315
320 322 322 323 324 325 325 326 325 323 324 323 322 323 325 323 324 324 325 325 324 325 326 325 323 322 322 321 320 318 314 313 313 314 314 312 311 312 312 312 312 311 309
319 321 322 323 323 323 325 326 327 325 325 325 325 326 326 326 324 322 320 320 320 322 323 322 321 320 318 315 313 311 311 311 311 312 310 309 309 309 308 307 306 306 306
319 321 323 323 323 324 323 324 325 327 326 325 324 324 324 322 320 319 317 317 317 316 316 316 315 310 309 308 307 306 307 308 310 310 310 309 307 307 307 306 306 305 305
319 321 321 322 323 324 324 323 324 326 326 323 322 321 319 317 316 317 317 315 314 313 310 305 303 302 301 301 300 300 300 300 300 300 302 307 308 307 306 305 304 305 304
319 321 320 320 320 320 319 319 320 321 320 319 318 317 316 316 317 316 314 313 311 309 307 304 302 301 301 302 301 300 299 299 299 300 300 300 303 303 304 304 304 304 303
318 319 320 319 320 319 319 318 317 317 317 317 317 318 318 316 314 313 312 312 311 310 307 302 302 303 303 302 300 296 295 295 296 298 298 298 298 298 297 296 295 294 292